GFSMW_250_spd_057.txt.gz
Wind_Speed
15 6 4 5 7 10 9 19 19 16 17 15 16 15 17 19 20 19 18 17 18 18 18 19 20 19 17 18 16 19 20 21 23 25 25 26 29 33 31 27 21 21 18
18 7 5 6 7 11 11 16 20 19 18 16 16 14 15 15 17 18 17 15 13 14 16 14 16 17 16 15 15 19 21 22 24 25 27 28 30 34 34 25 22 19 17
18 10 6 8 10 7 13 12 16 19 18 19 18 15 11 12 11 14 14 13 12 11 11 11 13 14 13 11 14 15 16 18 21 23 27 30 31 33 36 28 25 27 21
21 14 9 8 11 11 13 13 14 17 18 19 21 19 15 12 8 9 10 12 11 9 9 8 9 10 9 9 8 9 11 13 17 22 25 30 30 31 34 26 27 30 25
24 18 13 11 11 13 12 16 14 13 18 20 23 22 16 12 8 5 5 6 8 8 9 7 6 5 6 7 6 8 10 12 16 21 25 29 29 30 33 32 29 31 34
26 22 18 14 13 11 13 14 19 16 15 19 21 22 19 15 12 9 6 4 4 5 5 6 6 4 3 3 5 7 8 11 16 21 23 26 28 29 31 35 29 32 34
28 27 22 18 19 15 14 14 15 19 18 17 18 20 21 19 17 13 9 6 5 4 4 4 4 5 2 1 3 5 7 12 16 19 22 24 26 29 30 34 31 32 35
33 32 27 22 20 21 15 17 17 14 19 19 17 18 22 22 21 16 13 11 9 8 5 5 5 5 5 4 4 5 9 11 16 18 20 23 25 30 29 32 33 30 33
38 36 32 26 23 22 16 17 17 19 17 17 16 15 20 22 21 19 16 15 13 11 8 7 7 8 8 7 6 7 9 12 15 18 19 19 23 29 27 29 33 30 30
45 40 38 33 27 24 21 19 20 22 22 18 18 19 19 20 20 20 20 18 16 15 12 9 9 11 12 10 9 8 9 11 14 17 19 19 21 27 24 25 29 30 28
51 46 43 38 31 25 26 22 22 23 23 24 22 22 24 24 23 23 23 23 22 20 18 15 13 13 14 14 13 12 10 10 13 15 18 20 21 25 24 23 25 29 28
55 52 49 41 35 32 28 26 25 23 23 26 25 26 24 26 27 28 27 27 25 24 22 19 17 17 17 17 17 16 13 12 12 13 15 19 20 23 24 22 23 25 27
60 55 50 44 41 37 33 29 28 24 24 25 27 27 27 26 30 30 30 31 29 27 25 23 21 21 21 20 19 19 18 15 13 13 13 17 20 23 23 21 20 21 24
65 60 54 49 45 41 37 36 33 30 28 27 28 28 30 31 29 27 28 31 31 29 27 25 24 24 24 23 23 23 23 20 17 15 15 17 20 23 24 22 19 19 20
68 64 57 53 50 43 39 38 37 34 32 30 30 31 31 32 32 29 27 30 32 31 29 27 27 26 26 24 25 25 26 25 23 20 20 21 22 23 25 25 21 18 19
72 68 66 60 54 47 45 43 42 40 36 34 34 31 31 31 32 33 32 30 34 33 30 30 31 31 30 28 28 28 28 28 27 26 24 24 24 24 26 26 25 21 18
75 72 66 60 57 52 50 49 46 43 40 39 36 34 32 33 34 35 34 34 34 34 34 32 32 33 34 34 34 33 32 30 28 29 29 27 27 27 28 29 29 27 22
81 77 72 67 63 59 55 54 49 47 45 42 38 34 31 34 34 35 34 35 36 35 34 33 33 34 37 38 38 37 37 37 35 33 32 30 29 29 30 31 32 31 29
83 79 75 71 65 60 61 60 55 53 48 45 41 37 35 32 32 34 37 37 35 34 33 31 32 37 36 36 38 40 40 39 39 39 36 35 35 34 34 35 35 34 33
84 80 75 71 68 66 65 64 60 57 52 49 47 40 35 33 33 35 37 37 37 37 35 32 32 34 37 41 40 40 39 38 39 40 40 39 39 38 39 39 38 38 38
88 84 77 73 70 70 71 68 65 60 59 55 48 43 39 38 36 35 35 36 40 40 41 39 38 38 36 35 37 40 40 39 40 41 41 42 42 42 43 42 41 41 40
91 87 80 77 75 75 75 73 67 67 60 54 48 47 44 41 39 38 38 38 39 41 42 42 43 44 44 43 42 40 38 33 36 39 40 40 40 41 42 43 45 45 44
94 88 83 82 79 76 76 74 71 65 60 56 53 51 48 43 42 41 40 41 40 39 39 39 41 41 43 45 47 47 45 41 38 37 36 36 36 36 37 40 43 43 43
94 89 86 83 79 79 80 74 68 63 62 60 56 55 53 48 48 44 43 44 44 43 41 41 42 42 43 44 46 48 48 47 44 43 41 38 35 34 31 32 35 38 41
97 91 88 85 81 81 79 73 69 67 68 65 61 60 57 54 51 48 47 45 45 45 46 45 43 43 44 45 47 49 50 51 52 50 47 43 41 39 37 38 38 40 42
94 95 87 81 81 81 79 74 71 73 71 68 66 64 62 58 54 53 53 49 48 49 48 46 44 46 46 46 48 49 52 54 54 54 52 48 47 44 43 43 44 46 45

GFSMW_250_spd_060.txt.gz
Wind_Speed
25 24 16 12 8 7 16 14 17 16 14 15 17 17 17 18 18 18 18 18 18 18 18 17 15 15 16 19 22 23 25 26 28 32 34 33 35 29 25 24 22 17 12
26 23 15 13 9 10 17 18 16 16 14 15 16 18 16 15 15 16 16 15 16 16 13 12 13 13 14 15 17 18 21 24 27 31 33 32 34 29 23 24 23 16 13
27 22 17 13 10 8 13 21 19 15 16 15 16 17 15 13 13 13 13 13 13 13 11 10 10 9 10 11 13 15 16 20 25 29 31 32 31 33 26 23 23 22 17
31 21 17 12 10 9 12 17 19 20 18 18 18 18 17 13 11 10 9 9 11 11 10 9 7 6 7 10 11 12 14 18 23 27 29 31 32 33 30 27 26 26 21
32 24 21 16 15 12 12 16 18 20 21 21 21 19 16 14 10 9 6 6 5 6 8 7 6 4 5 7 9 13 13 16 20 23 26 29 32 31 34 28 30 28 28
28 28 25 20 17 14 12 16 21 19 22 24 24 22 19 15 11 7 5 4 3 4 4 4 3 2 2 5 7 10 12 14 18 20 22 26 32 31 33 32 30 31 33
28 31 28 22 19 19 13 12 17 23 22 22 24 23 21 18 15 11 7 3 3 3 3 3 4 3 2 4 6 9 11 14 17 20 22 24 30 31 30 34 31 29 31
34 35 32 27 24 23 19 15 17 18 23 24 21 21 23 21 18 14 11 8 5 6 6 5 4 4 5 6 7 8 10 11 14 18 20 22 28 31 28 30 33 30 29
37 38 35 32 29 26 23 15 18 18 19 21 24 23 23 23 21 19 17 13 11 10 10 8 7 6 6 8 9 9 10 11 13 15 17 19 23 28 27 27 30 31 30
37 42 37 38 34 28 27 24 22 21 19 20 22 23 23 23 22 22 20 19 16 15 13 11 9 8 8 9 10 11 10 12 12 14 15 17 20 24 26 25 26 28 30
46 37 39 43 39 33 31 28 27 26 24 23 24 27 27 25 22 22 22 22 20 19 16 15 13 12 11 11 12 13 12 11 12 11 13 15 17 20 23 23 23 25 27
52 58 42 50 44 40 35 30 28 29 26 25 24 25 27 28 28 26 24 23 23 21 20 19 16 16 16 15 14 15 17 15 13 10 10 12 15 17 19 21 20 22 24
58 54 46 49 48 45 41 35 33 29 28 25 25 25 25 28 30 30 30 29 27 25 24 21 18 19 20 19 17 18 20 19 17 14 12 12 13 15 17 18 19 19 20
71 72 52 33 49 51 46 39 35 32 31 29 26 26 27 30 30 29 31 31 29 26 25 23 22 22 22 22 20 21 23 24 21 19 18 16 17 16 16 18 19 19 18
81 77 59 56 59 56 51 44 38 36 36 34 32 31 29 27 30 30 28 32 32 30 27 26 25 25 25 23 23 23 24 24 24 23 22 22 22 22 20 19 19 20 19
84 80 70 60 55 54 53 49 44 42 41 39 36 32 30 29 30 32 34 32 34 34 31 29 27 28 29 26 26 27 27 26 26 27 25 25 25 25 25 24 23 21 22
84 83 77 70 61 49 53 57 53 48 44 44 41 38 35 33 31 31 31 35 37 36 35 33 31 30 30 29 29 31 31 31 30 30 31 31 31 30 28 28 26 25 23
88 80 76 70 60 43 34 61 58 51 47 47 45 42 39 37 33 32 33 33 36 37 37 36 34 34 34 33 32 32 34 34 33 32 34 34 35 34 34 33 31 30 29
91 86 84 77 75 82 67 45 51 54 52 51 50 48 44 39 35 34 33 32 35 36 37 36 35 34 34 34 34 34 36 35 34 34 35 36 35 34 35 35 35 35 33
98 93 90 87 85 82 80 70 62 59 58 57 57 52 47 42 39 34 32 30 31 36 37 35 34 34 36 34 35 35 36 36 36 38 36 36 36 37 37 38 38 37 36
101 95 94 91 89 86 81 74 68 64 67 66 60 54 51 47 43 38 35 33 33 32 36 38 38 37 36 35 36 35 34 35 32 34 34 35 35 36 36 36 36 35 34
108 105 97 94 94 86 81 77 72 73 75 68 62 58 55 50 46 42 39 37 36 34 35 36 36 38 38 38 39 39 39 38 36 36 36 36 35 33 32 32 31 31 30
116 108 103 101 92 89 84 80 77 78 75 69 63 62 57 53 49 46 46 42 39 38 38 38 37 36 37 38 38 39 41 40 42 43 43 43 40 39 37 34 30 29 29
114 113 99 101 91 90 84 82 82 79 75 71 66 64 60 57 53 50 51 48 44 43 41 38 38 37 37 37 37 37 39 41 43 44 44 44 44 45 42 38 35 34 35
120 115 108 95 95 92 86 84 84 79 76 75 70 66 62 60 59 56 56 52 49 47 45 44 42 40 40 41 41 42 43 44 45 44 44 45 46 46 45 43 41 41 40
117 116 107 100 96 94 88 84 82 81 77 77 71 67 65 64 63 60 59 55 52 51 49 47 46 46 45 45 45 46 48 47 45 45 46 44 44 44 43 42 44 44 46

GFSMW_250_spd_063.txt.gz
Wind_Speed
27 16 17 16 11 6 9 10 12 15 18 18 17 18 17 20 20 18 16 16 15 14 14 14 15 17 19 19 19 23 26 29 33 34 35 34 27 23 24 25 17 10 7
21 15 17 16 12 7 10 13 14 12 15 16 17 17 16 15 17 16 13 13 11 12 11 10 13 13 15 15 17 20 23 27 30 33 34 34 31 29 26 23 20 17 12
17 22 18 16 14 6 10 17 16 14 13 17 16 13 13 13 13 13 12 9 8 7 7 7 8 10 11 13 15 16 20 24 27 30 33 33 33 29 28 27 25 20 16
39 32 20 17 15 9 12 19 19 15 16 17 18 14 13 12 11 10 10 9 9 5 4 3 3 7 10 12 14 16 19 21 24 26 32 31 32 33 30 29 29 28 21
26 22 22 20 18 13 12 15 23 21 17 18 19 18 13 11 10 9 8 7 6 6 5 3 2 4 7 10 12 14 19 19 21 24 29 30 29 33 31 28 29 32 31
30 25 25 24 22 16 14 14 18 23 23 22 21 19 17 14 12 10 7 5 4 3 4 4 2 2 5 7 10 13 16 18 20 21 25 29 27 29 32 30 29 30 30
28 22 25 25 24 19 15 14 17 20 23 24 24 24 21 18 14 11 8 5 4 4 4 3 3 3 3 3 6 10 13 15 17 19 21 25 27 26 28 31 31 26 29
29 27 24 30 26 22 19 15 17 20 21 22 24 25 25 23 19 15 10 7 5 6 7 5 4 5 5 4 3 5 8 12 15 17 18 21 24 25 25 28 31 31 29
34 30 26 34 30 26 21 18 17 20 22 22 22 25 26 24 21 19 16 12 10 9 8 7 7 7 8 8 6 4 6 9 11 14 15 17 20 23 23 24 26 28 31
35 29 26 37 35 29 27 23 20 20 20 23 25 26 26 27 26 26 23 20 17 15 14 12 11 10 10 10 10 9 5 5 9 12 11 13 16 19 22 22 22 24 25
34 38 40 39 38 34 29 28 25 24 22 22 23 27 28 30 31 29 27 26 24 22 20 18 16 14 13 11 11 13 11 8 8 10 11 11 14 16 18 20 22 22 22
45 50 48 45 40 41 38 34 31 27 26 24 23 24 27 29 31 31 31 29 27 26 24 22 20 18 16 14 13 14 15 12 10 10 12 12 12 15 17 18 19 21 21
55 64 52 44 48 46 41 40 37 32 29 29 28 26 27 29 31 30 31 32 29 27 25 24 22 21 20 18 16 15 16 16 14 13 15 16 16 16 18 19 19 18 19
67 67 62 46 43 47 46 42 39 36 32 31 31 28 26 28 27 24 28 29 29 29 28 26 24 24 23 22 20 19 18 17 16 15 15 17 19 19 20 21 21 20 20
63 70 65 62 56 41 41 37 45 41 38 34 33 32 30 27 26 28 28 25 25 27 29 30 28 27 27 25 24 23 22 20 19 18 17 18 19 20 21 22 23 22 21
65 72 68 68 57 44 50 51 49 46 43 40 33 33 35 33 29 27 28 29 28 27 26 30 33 32 32 30 28 27 25 23 22 21 22 22 22 22 23 25 26 26 25
76 82 66 57 64 54 46 41 44 49 50 45 39 38 37 37 35 30 29 30 30 27 28 29 31 34 35 33 31 30 29 27 26 25 25 26 25 25 25 26 27 28 26
85 87 79 70 65 59 36 26 36 46 51 49 45 43 41 39 38 36 33 31 30 29 27 27 29 31 34 34 33 32 32 30 29 29 29 28 28 28 27 28 27 28 29
91 89 86 84 78 67 67 57 57 36 45 56 55 51 46 42 41 40 36 33 31 30 28 26 26 28 30 32 33 34 35 33 30 30 31 30 29 29 29 29 30 29 30
99 96 97 92 97 81 71 66 56 58 62 65 71 59 50 46 43 41 38 36 34 33 31 29 28 29 30 31 31 31 33 33 28 27 28 28 27 28 28 27 25 25 26
103 104 104 99 93 91 83 72 69 64 68 66 62 65 56 50 45 44 42 40 37 33 33 33 31 30 31 32 32 32 32 34 31 29 29 30 28 27 28 29 29 28 26
111 110 110 105 100 99 93 86 81 72 66 70 64 65 60 54 49 48 46 42 41 37 37 36 35 35 33 32 32 33 36 36 34 32 32 34 34 34 33 35 34 32 30
119 113 114 112 108 103 103 96 89 84 74 62 59 54 56 54 52 50 49 47 44 43 42 40 40 39 36 34 33 34 36 36 35 33 34 37 36 37 38 39 37 35 34
123 118 117 115 111 109 104 101 97 93 94 91 80 71 64 62 58 56 52 51 49 48 47 47 45 42 39 36 34 35 35 35 37 36 36 37 38 39 40 39 38 36 36
125 124 117 115 116 112 107 106 102 100 95 92 89 79 71 69 66 61 56 54 54 52 51 52 50 46 43 43 40 38 38 37 38 38 39 39 39 40 40 39 37 35 33
127 126 125 116 118 115 112 110 107 103 101 96 93 84 78 75 72 65 60 58 57 58 56 54 53 50 49 47 45 44 42 40 39 42 42 42 40 40 40 39 36 32 30

GFSMW_250_spd_069.txt.gz
Wind_Speed
12 12 8 6 11 12 9 5 6 5 9 14 14 15 16 13 8 5 6 9 11 10 12 14 14 19 20 22 24 25 28 26 29 31 32 33 35 33 26 14 6 4 4
19 17 7 5 9 14 12 5 10 10 9 11 14 14 14 11 9 6 11 8 8 7 8 11 13 15 18 21 24 23 25 27 26 30 31 32 34 35 33 25 16 10 5
17 14 13 7 15 12 13 8 11 14 14 13 14 15 14 12 11 9 9 10 7 5 5 7 10 12 13 18 21 21 21 25 26 27 29 32 33 34 35 29 22 19 17
22 18 18 14 17 22 13 10 11 16 19 18 18 14 14 14 11 10 8 7 7 4 2 2 6 9 11 15 18 20 20 22 26 25 26 29 32 33 33 33 31 24 19
30 26 23 22 23 24 13 9 12 18 18 20 18 16 17 16 12 11 10 10 8 5 3 1 3 7 9 11 15 16 19 19 22 25 26 27 28 30 32 32 32 30 31
37 32 28 28 19 16 12 11 13 18 22 20 22 17 16 14 14 13 11 10 8 6 6 5 1 3 5 8 10 12 15 17 18 21 25 26 26 26 29 32 32 32 31
39 35 33 25 22 19 17 13 15 16 22 23 22 21 18 16 15 15 13 11 9 7 5 4 1 2 4 6 8 9 12 13 14 17 20 23 25 26 28 28 28 30 31
44 42 39 31 28 21 24 20 16 18 22 26 24 23 23 20 17 16 14 11 9 7 7 4 2 4 4 5 5 6 8 10 13 15 16 18 21 26 27 26 26 27 28
51 47 46 44 39 26 22 23 20 19 22 28 29 26 26 26 22 20 17 15 13 10 9 7 4 6 6 3 4 5 6 7 10 13 14 15 17 20 22 25 26 25 25
56 53 48 46 43 33 27 30 34 26 22 26 30 30 27 27 27 25 23 20 17 15 14 10 9 9 8 5 5 7 7 7 8 10 12 13 16 18 20 21 22 23 23
58 56 55 47 47 39 32 30 34 35 28 27 27 28 31 30 30 31 28 26 23 21 19 16 15 14 13 9 9 9 9 9 9 9 10 13 13 15 16 18 20 21 21
59 59 56 52 49 44 38 34 30 36 34 27 26 26 27 29 31 33 32 30 28 26 24 22 20 19 18 14 12 11 11 10 11 12 12 13 14 13 14 15 17 19 21
61 57 54 50 48 49 49 35 35 35 36 32 29 27 29 30 30 32 33 32 32 31 29 27 24 24 22 19 16 14 15 12 12 14 15 14 14 15 16 17 16 17 19
67 63 56 53 51 51 52 48 38 37 37 36 32 29 28 27 27 29 32 31 30 31 30 27 27 25 24 20 18 18 18 17 16 15 15 16 16 17 18 18 18 18 19
73 68 63 61 54 59 58 55 48 42 43 38 35 35 30 27 23 22 28 31 29 28 28 26 25 23 22 20 19 19 19 19 18 18 17 16 17 18 18 19 20 20 20
78 75 72 65 57 56 61 59 58 51 47 45 43 37 34 33 29 25 24 25 27 25 24 27 25 23 22 20 20 19 19 20 19 18 18 17 17 18 19 20 20 20 20
83 80 78 73 65 64 63 63 60 57 51 54 49 43 38 32 34 32 27 25 24 24 25 23 22 22 22 20 19 18 16 16 16 17 17 18 19 20 20 19 20 19 19
85 83 84 81 75 69 69 69 69 66 61 57 53 48 45 36 36 37 34 29 25 25 23 19 18 17 18 19 20 20 19 18 14 14 18 18 18 19 19 20 17 18 17
88 87 86 89 83 75 79 69 70 68 65 60 56 51 50 44 41 42 41 35 28 26 24 22 18 17 15 14 16 17 19 18 16 13 13 14 17 17 19 21 21 20 17
98 92 91 92 89 86 80 78 71 68 67 61 57 58 56 51 49 50 48 41 38 31 28 25 23 21 18 18 18 18 17 17 15 13 14 15 16 16 20 23 22 20 20
104 101 94 94 94 94 89 82 82 76 72 63 59 57 55 49 48 47 51 47 44 40 33 30 26 24 23 21 21 20 19 16 13 14 15 16 17 18 20 23 24 22 23
110 108 103 98 96 99 96 91 83 79 80 75 70 62 59 51 57 56 51 50 49 50 40 36 32 29 27 26 25 24 23 18 17 15 14 14 16 18 18 22 24 21 23
117 111 108 105 100 102 102 100 95 88 83 87 82 73 67 63 57 59 60 55 49 53 45 40 40 33 31 30 29 27 27 23 22 19 16 17 19 20 19 18 20 21 22
122 116 112 109 106 106 106 106 101 98 90 88 87 80 76 70 68 61 64 58 53 54 56 49 46 40 34 34 34 32 29 28 28 23 19 20 24 25 25 23 22 23 24
124 122 116 114 113 110 110 109 107 109 104 88 87 83 81 83 73 67 72 63 57 54 53 50 47 45 42 39 38 36 34 31 29 26 25 27 30 31 29 27 27 28 29
126 125 122 117 116 117 117 116 115 113 106 100 90 90 89 85 82 74 74 67 61 59 54 51 49 48 51 43 43 39 35 33 30 28 31 33 33 36 32 31 33 34 35

GFSMW_250_spd_072.txt.gz
Wind_Speed
14 8 6 5 10 16 15 8 4 1 4 4 5 6 3 3 4 8 7 7 10 15 16 18 20 23 25 25 27 31 32 34 36 38 40 40 38 31 25 19 13 10 9
16 15 13 5 7 11 14 11 5 5 3 6 5 6 4 2 2 5 5 4 5 9 11 14 17 19 22 24 25 28 31 32 33 36 38 38 38 34 29 25 21 14 9
22 19 15 8 8 11 12 12 8 8 7 4 6 7 6 5 2 4 4 3 2 4 6 9 12 15 19 21 23 25 28 30 30 33 34 36 37 36 35 29 24 21 18
23 21 18 13 11 11 12 9 8 10 10 9 8 7 7 6 4 3 4 2 3 2 4 7 9 13 16 18 21 22 22 26 28 31 32 33 35 36 35 33 31 29 28
27 21 21 18 18 13 15 13 7 10 12 14 12 12 12 12 8 8 7 5 7 7 4 4 5 8 12 15 16 18 18 21 25 28 30 30 31 31 33 34 34 33 32
32 32 31 28 21 21 16 10 8 9 15 14 14 16 17 16 14 14 10 8 7 8 7 6 6 6 8 10 12 14 15 17 20 22 26 28 31 29 30 30 32 33 35
39 43 40 35 27 26 22 13 15 11 15 18 15 17 18 17 13 12 11 9 6 6 8 6 7 7 9 8 8 9 11 14 15 17 19 23 25 27 28 29 29 29 29
46 44 42 39 32 28 25 19 17 18 17 21 19 18 20 20 16 13 13 11 8 9 8 5 6 6 7 8 8 8 8 10 12 14 16 18 19 21 23 25 26 26 26
51 45 43 43 36 32 26 22 19 22 20 20 23 24 22 22 20 17 16 14 12 12 11 8 7 7 4 7 8 9 9 8 9 10 13 15 16 17 19 21 22 23 24
55 51 49 43 40 36 37 29 24 22 25 28 24 25 27 25 25 25 21 19 17 16 14 13 10 10 8 7 8 9 10 9 8 9 9 10 12 13 15 16 18 20 21
56 53 53 51 46 41 41 36 35 25 28 30 30 25 28 30 29 27 28 25 22 21 18 17 16 13 11 9 10 10 10 11 11 10 11 11 12 12 13 14 14 15 16
57 55 54 52 51 51 47 39 35 29 27 29 29 27 26 28 29 31 30 29 25 24 24 23 22 19 19 16 13 12 11 11 12 13 12 11 11 11 12 13 14 15 15
61 59 54 53 50 51 52 42 45 36 32 29 29 28 25 27 26 28 29 31 29 27 28 26 27 26 23 20 18 15 14 12 13 14 14 12 10 10 11 12 12 13 14
67 64 61 58 53 47 46 48 47 44 36 31 32 31 29 27 26 24 25 26 27 28 29 28 28 27 25 20 17 17 16 14 15 15 15 13 12 11 10 11 13 13 13
75 69 65 63 59 53 52 53 53 50 48 38 37 36 33 30 25 22 24 25 25 24 25 25 26 24 23 21 18 17 17 16 15 15 15 14 13 12 11 11 12 13 13
80 76 73 69 66 61 54 52 53 53 53 54 42 40 38 34 30 27 24 23 22 22 22 22 21 21 21 19 18 20 20 19 18 16 15 14 13 13 13 14 13 13 12
85 83 79 77 72 68 63 60 59 58 59 56 52 46 43 39 35 32 28 27 25 20 20 19 17 18 18 17 18 18 18 18 17 15 15 15 13 13 13 15 13 14 13
90 88 86 82 80 76 72 66 61 66 62 63 59 51 48 45 39 37 33 32 29 26 21 19 18 15 16 15 16 17 19 20 20 18 16 17 16 15 14 16 14 15 14
95 92 90 88 85 83 80 74 71 66 72 70 66 60 54 51 47 46 45 39 33 29 27 22 19 18 16 13 13 12 15 14 14 15 16 16 15 12 15 15 14 15 13
100 96 94 93 90 89 87 82 80 78 67 71 72 67 61 57 53 50 50 43 39 34 29 26 25 24 21 18 16 14 14 13 10 10 12 14 14 13 14 14 13 12 11
106 102 98 96 95 94 92 89 88 84 79 75 70 70 67 60 57 56 57 47 41 41 37 32 30 30 26 22 19 17 17 13 9 10 10 9 10 10 12 16 12 8 11
115 110 104 100 97 96 97 95 93 90 85 78 76 75 76 69 63 61 58 59 53 49 45 41 38 36 34 29 25 22 22 19 15 13 10 10 10 11 13 17 14 12 11
120 118 112 107 103 100 99 99 98 95 93 85 79 74 73 75 71 67 64 64 61 52 48 50 44 43 38 37 32 27 24 22 21 18 15 12 12 15 18 19 18 16 16
123 122 119 115 111 107 104 101 101 100 98 91 86 80 75 75 76 73 70 64 61 58 52 48 50 48 43 44 39 34 28 24 25 24 17 17 20 22 23 21 20 20 20
130 125 123 120 118 115 112 108 104 104 102 98 94 87 83 85 81 79 76 68 62 61 59 52 53 49 44 49 44 40 35 30 27 26 28 27 26 24 25 27 23 20 22
130 131 129 126 124 120 119 116 111 109 107 103 100 94 91 93 88 87 84 72 70 60 58 53 53 51 51 50 51 50 43 35 33 32 33 33 31 30 27 27 26 26 25

GFSMW_250_spd_075.txt.gz
Wind_Speed
6 6 2 3 7 15 12 14 7 4 2 2 3 4 5 6 8 8 8 10 12 19 21 22 24 26 28 29 32 34 35 36 38 38 37 37 35 30 23 17 13 11 9
13 10 11 2 3 13 12 10 9 4 2 0 3 4 3 4 6 3 5 7 10 14 18 20 19 22 25 26 29 31 34 34 36 37 37 37 38 35 31 27 23 18 14
19 13 15 10 7 6 11 14 8 4 1 2 3 4 4 4 3 3 4 5 8 12 14 16 17 18 21 23 25 27 30 33 34 34 35 38 39 36 34 31 29 26 23
25 19 20 15 13 9 9 13 12 2 2 4 4 4 2 3 2 3 4 7 8 10 12 12 14 16 17 19 22 23 26 29 32 33 34 33 35 37 35 33 32 30 30
28 24 23 20 16 13 10 11 11 8 3 6 7 6 7 5 4 5 7 9 10 8 9 11 12 14 15 15 18 21 22 23 26 28 30 32 32 32 30 30 32 31 30
32 27 28 22 19 17 15 14 11 12 8 7 9 10 10 9 6 8 8 11 12 7 6 7 8 10 13 14 15 16 17 19 20 23 25 27 28 28 28 27 27 27 29
38 33 32 28 25 23 21 20 17 16 13 11 11 10 12 11 8 8 8 9 10 8 5 6 6 8 11 12 12 12 12 14 16 17 19 21 23 24 24 24 24 24 25
47 45 40 37 33 32 28 25 21 21 18 15 16 14 16 15 14 11 11 9 10 10 5 7 7 7 7 10 11 11 11 11 14 14 14 16 17 18 19 19 20 21 21
52 47 46 41 39 39 33 28 25 18 15 18 19 19 20 17 16 17 16 13 11 10 7 5 7 7 7 7 7 9 9 9 10 11 12 13 14 14 14 15 16 18 18
55 53 50 46 41 41 37 32 31 26 14 18 20 24 23 23 22 22 21 18 16 13 10 8 6 6 6 7 8 6 9 9 10 11 11 12 11 12 12 12 12 13 14
57 53 52 50 47 45 43 40 38 34 23 18 17 23 23 27 25 25 23 22 20 18 16 12 11 9 10 10 11 10 9 9 9 10 12 12 11 11 11 12 13 14 14
57 53 52 54 52 51 50 44 40 38 38 28 25 20 22 24 28 28 26 25 23 21 20 19 16 16 15 14 14 12 11 9 10 9 9 11 11 10 11 11 12 13 14
62 57 53 51 51 51 51 51 46 43 38 34 33 25 24 24 23 27 29 28 26 24 22 22 23 20 19 19 16 14 12 11 11 12 10 9 9 9 9 9 12 12 12
67 64 60 57 53 52 51 50 52 51 47 43 37 32 29 28 26 25 29 29 29 28 25 24 25 24 21 19 17 12 12 11 11 11 12 10 8 9 8 9 10 11 11
74 71 67 63 59 54 52 49 45 48 50 50 46 40 34 30 30 26 26 28 28 29 27 25 24 24 22 18 15 14 13 13 15 15 14 12 10 9 8 8 10 10 12
81 78 74 70 67 64 60 56 51 48 51 52 51 47 40 37 35 33 29 26 26 25 26 25 22 22 21 17 15 14 13 14 14 15 15 14 12 11 10 10 9 10 11
85 84 82 78 74 71 67 64 61 55 53 55 56 53 47 40 40 38 33 32 27 23 22 22 22 21 19 16 13 13 15 15 14 13 14 15 15 13 12 11 10 8 9
87 87 86 84 82 79 75 71 68 63 59 58 59 59 56 52 44 41 41 37 33 28 25 22 22 21 20 17 15 16 16 18 15 13 13 15 16 15 14 14 8 8 5
91 90 89 88 86 84 82 78 75 71 65 65 62 61 61 59 55 51 45 42 37 33 30 26 25 24 24 21 19 18 18 17 12 10 8 9 12 13 13 12 9 6 4
96 94 93 93 91 89 87 85 82 78 73 69 67 64 61 63 61 56 50 47 43 37 36 32 31 29 28 24 23 21 19 18 12 10 8 7 5 7 11 10 8 5 5
106 102 99 98 97 95 92 90 88 85 81 77 74 71 67 65 66 63 59 52 50 44 42 39 36 34 33 27 25 24 23 19 11 13 11 8 7 8 10 10 9 3 8
113 112 108 105 104 102 100 96 94 91 88 84 82 78 74 71 69 69 68 61 55 52 49 44 41 40 37 33 27 26 26 23 19 18 15 13 11 11 12 15 11 9 11
118 117 116 112 110 109 106 104 101 98 94 90 89 86 83 78 74 74 76 69 62 60 57 52 47 45 44 38 32 29 28 27 25 22 18 18 17 17 20 21 14 11 12
124 123 121 120 117 114 112 110 108 106 102 96 94 93 90 86 80 74 76 77 72 68 60 57 59 54 49 45 41 36 32 30 31 30 24 23 26 28 26 21 18 15 15
127 127 126 124 124 122 117 116 113 110 109 104 100 97 96 93 87 83 78 76 78 77 68 62 62 64 56 55 48 44 38 36 36 36 34 31 28 28 28 27 25 21 19
127 132 130 129 129 128 125 121 119 115 113 111 108 104 101 98 94 89 87 83 79 77 79 71 69 67 64 55 51 48 47 42 43 44 46 38 33 32 31 30 28 27 25

GFSMW_250_spd_078.txt.gz
Wind_Speed
5 1 2 3 5 12 13 13 7 6 5 2 3 4 5 9 10 12 12 15 17 19 23 23 25 28 29 30 33 32 34 35 35 35 33 29 25 20 18 15 11 8 7
14 6 6 3 1 5 9 13 11 4 6 5 4 3 4 5 9 10 10 13 14 15 18 21 23 24 28 28 29 31 32 33 33 35 35 33 32 30 29 27 20 13 8
16 12 10 9 7 3 4 9 10 6 2 4 6 6 4 4 5 7 9 11 11 13 15 18 19 21 23 25 25 26 30 30 31 32 32 34 34 34 32 30 31 27 16
20 15 15 14 10 11 9 7 9 7 5 2 2 5 5 3 2 4 8 9 10 11 12 15 15 17 18 20 22 22 25 26 28 30 31 31 30 30 31 32 30 30 30
24 21 20 18 16 14 13 8 9 9 7 4 4 3 4 3 1 2 6 9 9 11 10 10 12 14 15 16 18 20 20 22 22 25 27 27 27 28 29 28 29 30 28
32 31 26 24 20 17 17 13 9 12 8 9 7 7 5 5 4 2 4 7 7 9 10 8 9 12 13 13 14 15 16 19 19 21 22 23 24 24 26 26 26 26 26
40 38 35 26 26 23 21 17 14 12 14 11 12 9 9 9 7 4 4 4 5 7 8 8 6 8 12 12 11 10 13 14 16 17 19 18 19 20 22 23 22 23 23
45 44 40 34 31 28 27 22 21 18 16 13 12 14 14 13 10 9 5 6 4 5 7 6 6 7 7 8 10 10 10 10 13 14 16 17 17 17 17 19 19 18 18
50 49 45 41 36 34 30 29 24 21 19 14 10 12 15 17 15 14 11 9 7 4 3 5 4 4 4 6 6 8 9 8 10 12 12 14 14 15 15 14 15 15 13
53 52 50 47 43 39 35 34 32 30 22 22 14 12 15 17 20 18 18 15 11 9 7 5 5 3 4 6 7 7 7 7 8 10 10 11 11 12 12 13 13 13 12
57 52 51 50 48 45 43 40 39 36 35 29 22 15 15 16 19 22 22 21 15 13 13 12 9 7 7 8 10 9 8 6 7 7 8 8 8 8 9 9 10 11 11
59 50 47 52 51 49 49 47 43 42 40 35 33 23 20 20 20 21 25 24 20 18 17 15 13 11 11 11 11 13 10 7 6 6 7 8 7 6 5 6 8 8 9
60 41 52 36 38 50 51 52 50 47 45 44 40 39 34 26 25 23 21 25 25 22 21 19 17 15 14 15 16 14 13 10 8 6 5 5 7 7 6 6 6 8 9
64 63 63 58 48 37 47 54 55 55 51 48 47 43 39 37 29 27 26 24 26 27 26 24 22 20 18 18 18 16 14 12 10 8 8 7 5 5 7 7 7 8 8
70 67 65 62 60 57 51 44 51 56 56 55 53 50 44 40 36 32 29 26 25 26 28 28 28 26 24 21 20 18 17 15 14 12 11 10 7 6 5 7 7 7 7
76 74 71 68 65 63 60 57 51 51 54 55 56 54 50 46 41 38 33 30 27 26 25 26 28 28 27 24 22 20 19 17 15 15 14 12 10 9 7 7 7 7 7
82 80 78 75 72 69 67 64 61 60 54 52 53 55 56 53 49 44 37 36 33 28 28 28 28 28 23 22 21 19 19 19 18 17 15 14 12 12 8 9 9 8 8
85 83 82 81 78 76 73 71 69 66 61 56 52 52 54 54 54 51 46 41 36 35 30 29 27 27 26 23 21 19 18 19 18 17 16 17 14 12 10 11 11 10 9
87 85 85 83 82 81 80 79 77 73 68 64 59 56 54 56 57 56 53 45 39 40 37 33 30 29 28 26 24 22 22 22 19 15 15 15 14 11 11 11 10 12 9
93 91 89 87 86 84 83 82 82 80 76 72 67 63 61 60 55 54 57 55 48 41 42 40 37 33 31 29 27 25 24 24 19 16 15 15 13 12 13 12 11 11 11
99 97 95 93 92 90 88 86 85 85 83 80 76 73 69 66 61 51 59 61 56 53 47 45 44 40 37 32 30 27 27 27 19 17 19 17 16 17 16 15 14 11 16
107 105 102 100 98 96 95 92 90 89 88 86 84 81 78 75 71 68 67 61 63 60 56 52 50 47 41 37 32 30 31 29 26 21 21 20 19 19 20 20 16 15 18
113 112 111 109 106 103 101 100 97 94 93 91 88 86 85 82 79 76 74 68 63 66 64 59 55 53 47 40 38 34 31 30 29 25 24 22 23 24 25 26 18 15 17
121 120 118 117 116 113 110 107 106 103 99 97 95 92 90 88 85 84 80 77 72 67 68 67 62 57 55 51 43 40 37 35 32 31 25 26 27 31 30 29 25 20 20
125 125 125 125 124 123 121 118 115 113 109 106 103 99 97 93 92 89 87 84 81 76 72 71 69 65 59 56 48 45 46 42 40 37 35 32 31 33 34 32 31 28 25
128 128 130 129 129 129 127 127 124 122 118 115 113 109 105 102 98 95 92 90 88 83 79 76 77 74 69 63 59 55 49 49 47 45 47 45 40 37 34 35 33 32 31

GFSMW_250_spd_081.txt.gz
Wind_Speed
8 3 2 2 7 11 13 12 8 4 6 4 3 5 9 12 12 13 16 18 20 22 24 23 26 26 28 31 33 34 35 35 33 31 26 22 17 13 10 7 6 6 5
15 7 7 2 1 6 10 13 10 8 2 4 5 4 6 9 10 10 12 16 19 19 21 21 22 23 24 27 29 30 31 33 33 34 32 30 28 27 26 21 11 6 1
20 14 12 9 4 6 7 10 10 9 8 3 4 4 4 5 7 8 11 14 16 17 18 18 17 19 22 23 25 26 28 29 30 30 29 28 28 28 27 26 26 22 15
27 18 15 12 9 8 8 7 9 9 8 6 2 2 2 3 4 5 9 12 14 15 15 15 16 15 18 21 21 23 24 25 26 26 26 26 26 25 24 26 26 28 29
28 24 21 17 13 13 10 9 8 7 8 6 4 5 2 1 3 6 8 9 12 13 12 12 16 15 14 16 17 19 20 22 23 22 21 22 22 22 23 24 25 27 28
32 30 26 22 15 16 15 12 12 6 5 7 8 6 6 5 4 2 5 7 9 11 11 9 10 12 14 12 14 13 15 16 19 19 19 19 21 22 22 22 23 25 27
36 36 33 27 21 20 19 17 16 12 8 6 9 8 9 7 7 6 3 5 6 7 8 8 6 8 11 13 12 11 11 13 14 16 17 17 18 19 21 21 21 23 25
40 37 37 33 29 28 25 23 21 19 17 11 10 11 10 8 9 11 6 3 2 3 5 7 6 6 8 10 10 11 10 11 12 13 14 13 15 16 17 17 17 18 19
46 42 40 38 36 33 31 25 23 26 21 18 13 13 11 9 10 13 12 9 5 2 2 4 5 6 8 10 9 9 10 9 10 10 10 10 11 12 13 14 14 14 14
46 45 45 43 42 38 36 32 27 26 30 26 21 18 16 13 11 11 14 14 10 7 6 2 1 2 5 8 9 10 9 9 10 10 10 9 8 9 10 11 12 13 12
53 48 56 49 46 44 42 38 37 32 34 33 29 27 20 18 16 13 13 14 15 14 10 8 5 5 4 7 6 10 10 10 9 10 9 10 10 9 10 10 11 11 11
57 47 46 45 45 46 46 44 42 41 38 39 37 32 30 24 20 18 15 16 17 20 18 14 11 10 10 10 9 11 9 9 7 6 8 6 7 9 9 9 10 10 10
62 58 52 31 36 39 40 43 46 46 45 43 39 39 36 34 28 22 22 17 19 20 24 22 17 15 14 13 13 13 13 9 8 7 7 7 7 4 5 6 8 10 11
64 61 58 50 44 43 40 42 48 47 45 46 44 43 42 39 36 36 31 25 23 22 22 26 24 22 19 18 17 16 15 14 12 11 10 9 7 8 6 6 5 6 8
65 62 60 57 52 41 48 44 39 42 54 54 50 47 44 43 40 40 36 32 27 26 25 24 27 25 24 23 22 21 19 19 18 16 15 13 10 9 8 8 7 7 7
68 65 63 59 52 65 60 51 43 42 42 41 46 51 50 50 48 44 41 34 34 31 28 26 25 28 25 23 23 23 23 22 21 20 19 16 13 12 10 9 9 8 8
75 72 70 67 64 70 66 57 58 62 63 59 52 50 51 54 55 51 47 44 38 36 33 30 26 28 28 25 24 23 24 23 22 22 19 17 14 12 11 11 12 11 10
83 80 78 76 75 75 75 76 72 68 65 61 55 50 46 49 53 56 55 51 45 40 38 34 31 29 30 28 27 24 23 23 23 22 20 19 16 15 14 13 14 13 12
90 89 87 85 83 81 80 79 76 74 71 67 63 58 54 50 47 50 55 56 52 49 46 40 36 34 31 28 27 26 25 25 25 23 21 19 18 16 15 17 16 15 12
91 91 91 91 90 88 87 85 83 80 78 75 71 67 63 60 56 53 52 49 54 52 51 48 43 39 36 30 29 26 27 28 28 24 22 21 20 17 17 20 20 19 14
96 94 93 92 92 92 91 90 88 86 84 82 78 74 72 68 65 62 58 56 54 53 51 50 45 41 40 36 31 29 29 32 29 26 24 24 22 20 21 21 22 17 15
100 99 98 96 95 94 93 92 91 89 88 86 84 81 78 75 73 70 68 63 59 54 54 56 53 44 42 41 38 33 32 33 32 30 25 26 24 23 25 24 22 17 18
106 105 103 102 101 99 99 97 94 93 90 89 88 86 84 81 79 77 75 72 67 62 60 58 56 54 48 45 43 40 37 35 33 32 28 24 27 27 29 28 24 17 21
113 113 111 109 108 106 105 103 101 99 98 96 93 91 89 86 84 83 82 79 75 72 68 62 60 63 58 51 50 47 42 40 40 39 36 30 28 33 33 33 30 21 20
122 120 120 118 117 115 113 111 110 107 105 102 100 98 96 93 89 87 86 84 83 80 77 75 68 66 64 67 59 51 47 49 44 40 41 42 37 36 36 34 33 33 26
125 125 126 126 125 124 123 121 119 117 115 111 108 106 103 100 97 95 93 90 88 86 84 83 79 76 73 69 72 65 55 52 50 39 45 57 52 45 40 37 35 34 34

GFSMW_250_spd_084.txt.gz
Wind_Speed
9 3 2 4 11 15 16 13 12 7 6 6 6 10 12 13 15 16 19 21 24 25 24 25 27 30 31 31 33 33 34 33 32 29 26 21 16 9 4 1 2 4 5
13 9 3 3 4 10 12 14 13 12 7 5 7 8 8 10 12 15 16 17 21 24 22 22 23 25 27 28 30 31 30 29 29 29 27 26 25 25 24 17 8 2 7
17 18 9 7 6 5 9 11 13 13 11 7 5 5 8 8 9 13 17 17 16 20 22 20 19 21 23 25 26 26 27 28 28 27 26 25 25 25 23 22 22 19 5
27 20 21 14 9 7 7 8 10 12 11 9 6 7 7 9 10 12 12 16 16 16 19 20 18 17 20 21 21 21 24 24 24 26 26 25 24 25 24 25 25 26 24
30 24 26 23 13 10 8 8 9 9 10 12 10 8 7 7 9 9 12 14 15 15 14 16 17 15 13 19 18 18 19 20 21 22 23 24 24 23 23 24 26 27 28
28 29 29 26 16 14 11 13 10 11 10 7 11 11 8 8 8 6 9 11 14 13 12 12 12 13 12 12 14 16 17 17 17 18 20 21 21 23 23 23 24 26 27
24 32 31 26 19 19 18 18 15 12 12 10 9 12 10 7 8 7 6 8 9 6 8 8 10 10 12 13 14 14 15 16 16 16 16 17 18 19 20 20 21 23 24
17 24 23 26 24 25 23 19 19 19 17 17 14 12 13 13 5 7 5 4 2 2 4 6 8 9 10 12 11 13 14 15 15 16 15 15 16 17 18 18 19 19 20
50 37 33 34 32 31 31 29 25 22 19 19 20 16 15 17 13 5 3 5 6 3 2 2 6 6 6 10 12 12 11 11 13 14 15 14 15 17 16 17 18 17 17
48 43 41 40 41 38 37 33 29 26 22 24 22 24 21 19 17 12 8 7 4 5 5 10 3 3 4 6 6 12 11 10 8 11 12 13 13 14 15 16 17 17 17
45 43 44 40 35 38 44 39 36 32 30 27 28 26 27 24 23 20 17 11 6 8 11 10 10 9 9 5 3 7 10 9 8 6 9 10 9 10 12 13 15 15 15
54 49 39 28 28 43 35 40 33 34 33 33 31 30 31 31 27 25 20 18 16 8 15 16 16 16 17 11 8 8 6 8 9 7 6 7 9 8 7 9 11 11 13
59 57 52 45 37 32 16 34 33 37 32 29 32 36 34 34 32 29 27 23 21 20 17 19 22 24 21 16 14 15 13 11 9 9 9 7 8 9 10 10 9 11 12
68 64 61 58 58 47 35 44 34 33 35 33 44 42 33 36 37 34 33 32 29 28 26 23 21 23 23 23 22 20 18 16 15 14 13 12 11 9 9 10 10 9 11
72 70 68 66 66 65 58 49 42 43 35 37 45 41 36 42 38 36 36 36 35 31 30 29 25 23 25 26 25 24 23 21 19 17 16 14 13 12 10 10 10 11 12
71 71 71 70 68 63 55 47 52 49 48 45 46 39 44 45 41 39 41 42 40 36 33 31 30 28 27 27 25 24 22 22 23 20 17 15 13 12 10 10 9 9 11
72 71 70 69 68 65 64 58 65 57 51 52 52 50 48 40 34 39 42 48 45 41 38 34 32 31 30 27 26 26 24 22 23 23 22 19 16 13 10 11 11 11 11
78 75 73 71 70 68 70 70 68 63 60 62 65 59 52 47 47 41 40 44 49 47 41 38 37 35 34 30 27 27 27 26 26 24 22 21 19 16 14 14 14 14 12
85 82 79 77 76 75 75 76 81 77 75 74 69 67 61 55 59 52 48 47 45 47 48 48 43 40 38 34 31 26 28 29 29 26 23 22 20 17 15 18 16 17 14
92 91 88 86 84 82 80 79 77 77 77 81 73 74 69 66 66 62 55 52 48 46 44 49 49 48 46 42 35 32 28 30 29 26 25 22 21 16 16 20 19 18 12
96 96 95 93 91 89 87 85 83 83 80 81 83 82 77 77 74 68 65 61 55 51 46 49 49 51 49 47 44 36 35 32 30 26 25 23 21 20 18 21 23 15 11
100 99 97 96 96 95 95 94 92 92 91 89 87 90 91 86 82 76 73 70 65 60 56 55 54 50 50 48 46 42 40 38 33 32 26 24 23 23 22 23 24 20 13
105 105 102 100 98 99 99 99 99 98 98 97 95 94 93 90 87 85 81 78 74 70 66 61 60 58 55 53 51 45 43 40 36 35 34 31 28 26 28 28 26 20 15
109 108 107 106 104 104 103 101 100 100 101 100 100 100 99 96 93 90 88 85 81 78 75 72 67 63 63 60 57 57 50 46 39 36 39 40 34 31 30 32 30 27 20
114 113 112 111 110 109 108 107 106 105 105 104 103 102 100 98 96 93 91 89 88 84 81 79 76 73 69 67 64 61 61 58 50 43 40 40 40 42 41 36 35 32 29
120 120 119 117 116 115 114 114 113 112 112 111 110 108 106 103 100 98 95 93 92 89 86 85 82 80 79 74 72 69 65 66 62 53 48 46 45 45 44 38 36 34 32

GFSMW_250_spd_087.txt.gz
Wind_Speed
2 2 4 6 12 15 18 19 14 9 10 11 11 12 15 18 20 20 20 22 23 24 26 28 30 32 35 36 35 34 33 31 29 28 26 25 21 13 9 6 6 7 7
3 8 5 2 6 10 12 17 18 16 13 11 12 13 14 17 18 19 19 18 20 20 21 23 26 27 29 30 31 31 32 31 28 26 24 24 23 22 19 17 10 6 10
10 10 12 6 1 4 9 11 15 16 16 13 12 13 14 15 14 15 17 15 17 18 20 19 21 24 25 26 27 26 26 27 27 26 25 23 23 22 21 21 21 13 4
23 19 13 13 4 2 4 8 11 13 14 13 13 14 13 15 15 13 14 14 13 14 16 17 16 19 21 22 21 23 24 22 24 25 25 24 23 23 23 23 25 25 17
30 22 18 16 11 7 2 3 8 9 11 11 12 15 13 11 12 14 13 12 12 12 13 15 16 16 17 17 19 21 21 21 21 22 23 23 24 22 23 24 24 27 28
22 21 21 19 18 14 8 3 5 7 8 9 11 13 14 12 8 10 12 12 11 13 11 11 12 14 16 16 17 16 18 20 19 20 21 23 22 23 23 22 24 25 26
23 26 31 24 21 14 13 10 4 4 7 9 11 11 13 14 13 8 8 8 10 9 9 9 9 11 14 13 15 13 13 16 17 18 19 19 20 20 23 23 22 22 21
26 23 23 15 27 18 15 13 10 8 7 9 11 11 12 13 16 14 7 6 6 7 8 4 5 7 9 11 13 12 11 12 14 16 16 16 18 18 20 20 21 21 20
22 39 25 21 18 21 18 18 18 16 16 13 13 13 12 15 13 14 12 14 8 7 8 8 10 5 9 8 11 13 12 9 9 11 12 13 14 16 18 18 18 19 18
39 44 24 23 21 16 24 24 22 23 22 19 19 17 16 15 12 12 15 18 16 10 9 10 12 13 15 14 9 11 13 11 10 10 11 12 11 12 13 14 15 15 15
49 55 41 37 34 25 30 32 24 28 29 25 23 25 22 19 17 14 16 15 16 15 14 13 15 15 19 17 15 13 16 15 13 13 13 11 12 11 13 13 14 14 13
51 42 44 36 29 23 33 24 23 23 32 28 27 25 28 27 21 19 19 18 15 14 13 17 20 20 22 20 18 22 20 20 17 15 13 13 13 14 13 13 14 14 15
57 51 49 44 35 34 42 22 26 36 27 26 30 30 30 30 28 21 22 23 23 22 19 19 21 22 23 22 22 22 23 23 20 18 17 14 13 13 13 13 14 14 16
66 55 57 51 44 45 36 28 18 34 38 27 28 27 23 25 39 34 26 28 28 28 27 25 24 25 23 23 22 22 21 22 21 19 18 17 15 13 12 11 12 12 14
74 70 63 61 56 51 41 38 34 31 43 35 35 30 22 20 23 30 32 30 34 32 32 31 29 26 25 23 24 25 24 21 19 19 17 15 13 14 13 11 10 11 12
81 79 77 69 63 57 56 53 44 39 51 45 38 30 24 28 25 36 37 35 33 35 35 36 35 32 27 23 24 27 27 25 22 20 19 16 14 14 11 12 11 11 13
89 86 84 78 72 69 66 64 61 53 54 50 44 44 39 45 39 37 31 32 30 32 36 37 38 37 31 28 25 25 27 26 25 23 21 19 16 14 12 13 13 13 14
89 90 88 85 81 79 76 74 74 75 73 60 49 52 47 53 63 52 43 34 34 33 37 38 40 39 40 33 28 28 30 30 28 26 25 23 21 17 13 15 16 15 15
88 87 87 87 85 83 81 80 81 80 74 68 64 65 64 63 65 60 59 55 47 47 47 49 42 44 45 42 39 33 31 32 31 29 27 26 23 19 17 17 16 19 16
93 89 87 86 85 83 81 80 81 80 79 77 76 65 63 69 65 67 60 59 55 58 57 55 50 48 49 45 41 40 38 35 33 29 27 26 24 18 18 20 19 20 13
95 95 92 89 86 86 85 83 84 82 80 79 85 85 81 73 67 71 72 68 65 70 69 65 54 50 46 44 39 44 44 42 40 36 32 28 26 22 21 21 22 17 11
99 98 97 95 94 92 88 87 86 85 84 84 86 89 87 76 74 69 69 74 71 72 73 74 68 54 51 50 49 48 45 42 42 42 38 32 31 28 24 23 25 22 16
105 104 103 100 101 99 97 94 92 91 90 90 89 95 93 90 89 87 87 87 86 83 83 84 80 70 61 57 55 54 50 45 47 44 43 36 37 33 32 28 26 26 22
113 110 107 105 105 104 102 102 102 101 99 98 97 97 97 98 98 95 94 92 91 93 88 88 87 86 77 70 65 62 60 54 49 47 44 43 41 42 40 35 31 30 29
118 116 114 111 111 109 108 107 107 107 107 107 106 105 105 103 102 101 100 99 97 93 94 95 96 95 88 78 72 69 66 64 57 53 54 52 50 48 46 42 38 35 33
118 120 120 118 116 114 114 113 113 112 111 110 110 111 112 112 111 110 109 107 106 103 101 99 98 98 92 88 83 80 75 70 68 64 62 62 57 56 54 50 48 44 38

GFSMW_250_spd_093.txt.gz
Wind_Speed
5 5 5 9 11 14 13 13 15 15 15 17 17 16 21 25 24 22 25 24 20 27 29 29 28 29 30 31 32 29 27 26 25 24 22 22 22 21 19 13 6 5 3
9 8 5 1 7 11 13 13 14 13 13 14 16 18 16 18 19 21 21 23 23 23 25 24 27 29 27 27 29 28 26 26 25 24 23 23 22 20 20 18 12 5 7
11 11 4 2 3 5 8 10 11 11 13 14 15 17 16 15 16 18 18 19 24 23 23 24 25 26 26 26 25 24 25 25 25 24 22 21 21 22 22 22 20 7 4
17 14 10 8 4 2 1 6 9 11 13 12 15 12 12 14 15 14 16 16 20 22 21 24 22 25 27 24 23 23 23 23 25 24 24 22 22 24 23 23 27 18 16
22 20 16 9 10 8 5 1 4 8 9 11 13 14 13 12 13 13 12 16 16 18 18 20 22 24 29 31 24 23 24 23 24 23 22 22 23 24 25 25 26 27 26
27 25 25 19 14 15 10 6 4 6 4 8 8 10 12 16 13 12 11 15 17 17 16 16 17 21 25 29 29 23 24 25 24 25 23 23 22 23 24 24 25 23 24
36 29 27 28 19 20 20 14 10 8 5 3 5 5 7 9 12 13 15 14 15 16 16 16 19 20 21 24 28 30 26 25 25 26 25 25 25 24 24 22 22 20 18
35 26 23 28 21 21 19 15 16 13 10 6 4 6 5 6 8 10 12 15 14 16 17 17 17 23 20 23 25 26 27 26 25 24 24 24 25 26 25 25 23 21 19
40 33 36 26 24 24 19 16 20 16 14 13 9 8 8 7 8 9 8 10 14 15 18 18 20 21 22 20 25 23 23 24 25 25 23 22 22 22 23 24 23 20 19
44 40 35 32 32 31 26 19 20 17 18 17 12 12 13 11 8 12 13 13 10 12 12 13 16 19 21 20 25 23 22 24 24 24 24 21 20 20 20 19 20 20 17
40 43 41 38 36 34 28 25 21 17 12 11 11 7 15 16 13 10 14 15 15 12 10 12 14 17 20 20 20 22 22 22 22 23 22 22 22 18 19 18 16 17 18
50 48 44 40 37 30 28 28 25 22 18 14 10 9 9 11 15 21 21 20 19 15 11 11 12 17 19 19 18 19 22 21 22 22 22 21 21 20 17 16 16 14 14
50 52 49 48 43 39 36 34 33 31 24 22 19 19 16 17 12 16 18 17 17 13 18 14 12 17 19 19 19 17 17 20 21 22 20 20 19 21 20 17 16 14 13
58 58 54 56 51 39 47 42 40 33 31 32 31 28 24 22 23 20 21 16 15 16 14 26 25 23 23 19 20 17 15 16 17 18 19 18 19 19 20 19 17 15 12
72 60 60 61 59 55 53 52 45 36 33 35 35 32 30 31 30 28 27 19 15 11 12 13 12 20 18 18 17 18 17 17 17 17 18 18 19 20 19 19 19 17 15
75 68 62 58 62 61 60 56 50 44 36 38 36 36 37 39 36 32 29 28 23 19 14 10 16 16 20 20 18 17 20 19 19 19 19 21 21 21 22 20 21 19 18
82 75 77 68 67 66 65 58 49 51 51 51 47 41 46 45 40 36 36 37 32 30 29 21 23 30 21 22 24 24 26 25 23 25 22 21 21 23 24 23 22 21 20
85 81 83 88 84 77 72 67 59 55 53 57 55 49 51 51 42 38 42 42 42 37 39 40 36 32 27 29 24 26 30 34 36 36 31 29 26 23 24 24 22 22 18
88 90 88 91 93 85 80 78 74 72 62 67 63 55 56 55 46 45 49 48 48 48 42 41 40 43 46 37 32 30 31 42 41 33 32 34 33 27 25 26 25 23 18
89 91 96 98 95 90 85 84 84 79 79 73 74 67 66 61 62 56 56 55 55 48 46 46 49 47 43 45 43 47 42 39 38 37 29 40 37 32 30 30 29 27 23
98 96 97 100 101 98 95 87 85 84 81 85 79 83 71 72 64 60 57 50 54 53 53 53 55 58 55 52 56 53 48 47 47 49 41 35 45 43 35 35 31 32 31
107 103 99 98 102 104 106 103 98 92 89 92 92 86 85 79 71 68 68 64 62 63 64 65 67 63 64 65 61 57 52 58 57 56 56 52 56 55 44 39 38 35 33
112 110 107 104 104 104 103 101 104 104 98 97 99 93 94 91 87 79 78 73 77 64 61 66 70 76 74 73 68 72 76 76 70 68 62 60 57 60 58 50 45 43 40
117 116 114 112 110 107 106 105 104 99 104 104 105 100 99 97 98 94 90 91 88 88 89 88 89 91 90 91 93 89 88 89 87 78 72 69 71 69 70 65 56 55 50
120 121 120 118 116 114 111 109 108 108 108 107 112 111 109 107 104 102 102 102 99 99 100 99 100 100 97 93 94 91 82 78 79 76 78 78 77 78 76 74 66 59 56
119 121 121 121 121 120 118 116 114 112 111 110 112 114 117 118 116 115 112 110 113 114 112 110 109 107 106 105 105 100 96 96 95 89 80 84 81 82 82 83 79 68 63

GFSMW_250_spd_096.txt.gz
Wind_Speed
3 2 7 13 15 14 16 14 17 15 16 17 21 22 22 23 24 27 29 30 32 32 32 34 32 32 32 32 32 32 31 29 27 27 26 26 24 23 20 11 1 4 6
9 5 1 5 6 12 13 14 14 14 15 16 17 20 23 21 24 25 28 28 27 28 32 31 33 30 31 30 30 31 31 29 28 26 26 27 26 23 24 19 5 7 8
12 8 6 1 3 6 9 13 12 15 16 16 16 19 20 23 19 20 23 25 21 27 30 27 30 33 31 29 28 28 30 28 28 28 27 28 27 27 28 27 17 10 13
16 11 9 6 2 0 3 6 9 12 16 14 15 17 17 20 21 19 20 23 24 25 24 24 27 33 34 30 30 28 29 29 28 31 29 29 29 30 30 29 29 25 22
19 15 13 10 6 4 5 5 4 8 9 9 10 14 16 19 18 19 19 23 23 23 23 26 28 30 32 33 31 29 30 29 29 31 31 31 30 31 30 31 27 26 23
27 23 18 15 13 9 8 6 7 5 5 6 8 11 12 15 17 19 19 19 22 23 25 25 27 27 31 29 31 31 29 28 29 29 30 31 30 30 31 29 27 23 22
31 28 27 22 23 17 14 15 12 10 5 6 7 8 10 12 12 14 16 17 18 20 22 22 22 21 22 28 29 29 28 29 27 27 27 28 29 29 27 27 27 28 27
32 34 30 27 26 22 19 18 17 15 11 9 8 6 6 8 11 12 14 16 16 18 19 20 24 24 22 24 24 24 26 29 28 26 25 25 24 25 27 25 24 24 24
45 36 34 32 27 20 20 22 19 15 14 13 12 10 7 6 7 9 10 12 12 12 13 15 18 20 22 22 21 24 23 24 27 27 26 24 23 22 23 23 24 22 20
45 48 42 36 25 30 23 25 23 19 14 12 12 13 11 11 8 6 7 12 10 11 11 10 14 17 20 22 22 22 22 24 24 24 26 26 23 23 22 21 21 22 21
44 44 42 40 38 39 30 31 28 24 16 13 10 11 9 6 10 9 13 17 13 13 12 8 8 13 16 19 21 23 21 22 23 22 20 25 24 25 22 22 20 20 20
56 51 46 47 45 41 35 34 37 30 22 19 13 14 9 6 5 7 6 11 11 11 12 15 9 11 20 18 18 16 16 15 19 20 17 18 20 22 23 22 21 18 18
60 56 53 51 47 44 37 35 43 38 31 27 21 19 15 12 10 12 12 9 11 11 11 7 15 17 22 22 16 15 14 14 16 14 17 16 17 19 21 21 19 17 16
59 56 54 53 48 43 42 44 46 37 36 34 26 27 24 20 16 17 16 19 19 14 10 14 11 9 13 15 14 11 11 13 16 17 19 18 20 19 19 22 23 20 15
64 63 59 59 57 51 50 51 49 41 42 49 38 37 37 31 26 29 28 24 24 23 19 14 14 10 3 8 14 12 10 11 14 16 23 25 23 22 20 21 22 22 19
73 67 64 65 63 59 56 62 58 53 59 58 44 42 40 37 38 32 34 34 32 28 26 22 21 18 9 12 12 17 16 14 13 15 21 26 27 24 25 25 22 19 16
84 75 74 67 65 60 62 63 65 62 60 56 51 47 43 45 45 44 42 42 38 34 33 29 27 27 31 23 21 19 20 17 13 16 19 23 22 23 22 24 23 22 19
94 94 80 78 69 63 65 65 65 68 67 60 59 55 51 50 49 48 46 46 43 40 38 39 38 37 37 33 30 24 25 25 24 19 21 28 22 20 25 27 25 23 21
100 97 96 90 84 81 75 71 67 73 75 70 68 60 55 55 56 53 50 49 52 51 49 49 48 46 46 44 41 43 38 35 29 23 26 31 23 24 30 35 31 29 25
101 101 100 101 99 95 87 80 77 75 73 77 74 69 59 62 64 61 54 53 57 58 55 53 52 53 52 52 49 41 39 40 38 36 34 35 33 32 37 35 39 34 35
96 97 100 99 99 99 99 88 84 87 83 81 78 74 69 69 63 64 62 62 66 65 62 55 54 57 55 54 50 46 50 47 49 44 47 41 40 47 46 43 45 48 42
100 98 97 94 95 98 99 97 90 91 90 88 87 83 74 76 75 75 74 66 66 68 67 64 60 57 59 59 55 57 57 60 60 58 53 49 51 53 48 48 54 52 51
106 105 103 100 97 95 96 100 100 97 101 98 96 93 94 88 85 83 82 78 75 66 71 77 74 63 62 58 60 60 63 67 68 65 67 63 58 57 59 66 65 63 54
113 112 110 108 105 103 101 99 98 101 103 103 107 105 101 99 96 94 90 86 89 84 83 76 79 70 69 68 71 71 73 78 77 76 74 72 72 76 79 76 74 69 66
116 118 118 117 113 111 109 106 102 101 101 104 106 110 108 107 104 105 103 100 95 98 96 91 86 84 73 74 72 69 74 71 73 72 82 87 86 85 87 87 83 82 77
120 119 121 121 121 118 115 113 111 109 107 106 104 109 114 114 111 107 106 104 103 103 105 105 104 100 99 92 87 89 96 94 94 97 96 97 94 93 89 80 87 85 80

GFSMW_250_spd_102.txt.gz
Wind_Speed
3 6 10 14 18 21 24 22 22 23 26 27 28 31 33 32 32 34 36 36 35 34 34 34 34 34 35 34 33 32 31 29 28 27 26 24 13 2 7 8 7 9 11
4 3 4 8 12 16 20 22 23 18 20 24 25 25 28 29 29 31 31 35 36 34 33 31 31 31 31 32 32 31 31 30 29 27 28 30 22 15 14 15 13 13 12
11 4 6 5 7 11 15 17 17 21 19 19 24 25 27 29 29 29 29 32 34 35 35 32 30 30 29 29 30 29 31 32 30 30 28 29 33 31 29 23 17 14 10
17 8 8 8 5 6 8 11 16 16 19 16 16 18 20 23 23 24 25 27 28 32 34 35 34 33 29 27 29 28 29 31 31 30 30 28 31 31 31 24 19 15 16
23 16 12 11 9 5 5 3 8 11 12 15 14 14 14 17 19 21 22 22 26 28 30 31 32 34 31 28 28 29 28 29 31 32 31 30 29 28 25 22 21 19 19
27 22 18 15 9 6 3 4 3 5 8 12 10 11 11 13 15 16 18 20 21 23 23 29 29 30 33 31 29 31 29 30 30 30 32 30 27 26 25 24 22 20 19
30 25 21 19 15 11 7 3 1 4 5 7 7 9 8 9 11 12 14 20 19 18 21 23 24 24 26 30 29 29 34 32 30 30 29 30 31 30 26 23 24 24 21
36 32 27 25 17 17 15 10 5 7 8 6 4 2 4 6 8 10 12 14 17 16 17 18 20 21 24 25 25 27 28 30 30 30 29 29 29 31 29 26 23 22 23
43 38 32 30 23 19 21 18 13 10 11 8 7 3 4 3 4 5 8 10 10 15 17 16 17 19 21 22 22 19 24 28 27 29 30 29 28 28 29 28 25 24 25
46 45 40 42 33 26 26 23 17 13 18 12 11 9 7 5 4 3 3 6 7 9 11 15 16 16 19 20 21 21 18 19 23 24 27 29 31 29 27 30 27 26 26
53 49 48 47 42 31 30 27 22 18 18 18 15 15 12 9 8 4 3 2 3 3 7 6 8 9 12 17 18 18 18 20 18 21 22 24 25 29 29 26 28 28 26
58 58 55 52 47 38 35 31 28 28 26 25 24 21 19 16 13 11 10 5 4 2 2 4 2 2 7 6 14 17 15 15 14 16 20 22 26 24 25 26 24 23 22
63 63 56 55 52 46 43 38 34 28 32 31 29 27 25 22 19 16 15 13 10 8 9 8 6 3 4 2 5 10 10 13 12 16 17 21 24 28 27 21 24 21 21
71 64 60 60 55 53 50 42 39 36 32 29 32 30 29 27 26 24 20 19 16 12 15 14 8 6 7 8 2 5 2 8 8 10 14 15 20 21 25 22 20 24 21
80 72 65 66 64 57 56 53 50 42 37 40 36 35 34 33 32 30 29 28 23 21 11 22 21 14 17 14 9 12 9 8 7 7 9 14 15 17 17 22 22 21 22
81 82 74 72 67 64 63 58 54 49 48 48 46 44 42 39 40 39 38 38 35 30 25 24 25 25 21 19 21 16 14 16 11 10 11 16 21 21 18 12 19 19 20
84 77 71 71 72 70 68 66 60 56 56 54 53 53 48 44 42 44 44 45 43 39 40 37 34 32 31 27 26 26 24 24 19 23 23 26 22 19 21 20 18 23 14
89 85 85 78 72 71 73 71 69 66 64 62 59 58 54 52 50 47 54 52 49 48 44 45 43 39 39 36 34 32 30 31 31 30 31 31 25 27 25 24 21 23 24
100 95 88 83 79 81 76 73 73 71 71 68 65 65 63 62 63 65 57 54 58 56 49 52 52 51 46 46 41 39 38 39 36 37 38 34 33 37 33 29 31 30 27
109 107 107 100 93 86 83 85 82 77 74 69 71 69 70 67 67 70 65 63 65 66 63 57 56 56 54 50 51 46 44 44 46 44 46 44 42 43 39 39 37 39 38
100 102 104 104 103 100 95 85 83 83 83 84 78 73 73 72 70 74 73 70 70 73 71 65 62 59 61 59 60 55 52 50 51 52 52 52 51 49 49 46 40 41 44
99 99 95 93 95 103 105 101 93 89 90 85 82 79 76 77 77 75 77 78 78 76 75 72 68 63 61 65 63 61 59 56 58 55 57 58 60 59 55 52 50 47 51
101 100 98 96 94 95 99 107 106 104 92 90 90 88 88 86 84 82 80 84 82 80 77 79 68 69 71 62 67 70 70 69 64 62 62 64 64 63 59 58 55 55 57
103 102 99 97 96 96 96 99 103 113 110 107 105 100 95 93 90 89 85 79 81 80 77 77 74 73 72 70 72 67 64 67 65 67 73 72 67 68 65 64 64 61 62
104 103 104 103 101 99 99 99 100 101 104 110 114 114 112 107 103 102 99 99 96 92 92 90 84 83 84 82 80 84 81 81 77 71 63 70 68 71 73 68 72 68 68
104 105 107 107 106 105 104 102 101 102 103 104 103 103 105 109 113 113 110 106 104 105 101 100 99 100 96 92 89 90 91 89 91 89 88 85 77 71 76 70 71 65 71

GFSMW_250_spd_105.txt.gz
Wind_Speed
7 10 16 20 21 22 18 18 24 25 25 24 25 25 29 32 36 37 36 33 32 31 30 31 32 31 30 29 27 26 24 21 20 20 17 6 4 9 11 12 13 12 12
3 4 8 16 18 19 20 22 18 21 21 23 26 27 27 28 29 32 34 35 33 32 31 30 30 31 31 31 30 28 28 27 26 24 25 20 12 15 17 15 15 13 9
5 4 5 7 14 15 17 19 20 17 18 19 21 22 21 22 24 27 30 34 35 34 33 33 30 31 33 33 32 32 31 30 29 27 27 30 27 26 20 16 13 9 8
11 8 8 7 7 10 13 17 18 17 16 13 18 18 18 18 20 25 27 28 29 32 32 33 32 31 33 32 31 31 31 32 31 30 29 26 25 24 20 16 15 14 12
17 14 12 9 9 8 6 8 14 13 14 13 16 11 13 15 18 20 21 22 26 27 29 32 32 31 34 33 32 30 29 29 31 29 28 26 25 20 18 17 17 15 15
24 19 17 14 10 7 5 4 8 9 10 10 10 10 11 13 16 18 20 20 22 24 24 25 27 30 31 31 33 32 31 30 30 31 31 30 26 23 21 17 18 18 17
31 25 23 22 15 10 7 4 2 4 5 8 6 8 8 11 11 13 18 21 18 21 22 24 24 26 26 26 30 31 31 32 32 30 31 30 28 26 25 25 25 23 24
35 30 26 24 22 15 11 9 1 4 1 4 3 2 5 8 9 10 14 14 15 16 17 23 25 25 25 24 24 29 29 30 32 33 31 32 32 30 25 24 24 22 26
36 32 29 27 22 20 15 15 12 8 8 2 2 5 1 2 3 8 11 2 9 14 15 15 20 24 24 26 28 28 28 29 29 29 30 34 33 32 28 27 27 25 25
42 37 35 35 29 27 21 18 17 14 10 9 6 8 6 5 4 4 4 17 13 5 5 11 12 15 19 21 23 26 30 30 29 29 33 27 32 33 30 27 27 24 21
43 41 43 39 35 33 33 27 24 18 16 12 10 11 11 9 8 6 7 7 5 4 4 7 7 7 10 13 17 19 20 22 27 28 29 35 27 28 31 29 26 23 18
58 53 50 49 44 41 38 35 28 25 21 16 16 14 17 15 14 13 11 10 8 4 5 1 4 2 5 6 12 14 16 17 18 22 26 30 32 27 24 29 27 22 17
64 59 59 54 52 48 44 39 39 33 29 28 24 25 22 25 21 20 18 17 13 13 9 7 6 5 3 2 2 8 7 11 10 16 21 24 28 27 27 25 27 27 19
67 62 62 58 61 55 52 45 45 42 37 32 30 27 20 28 27 28 25 21 20 17 16 14 8 8 10 7 5 4 6 6 9 7 13 19 24 25 23 25 24 22 23
78 68 60 61 61 61 59 58 49 47 42 41 34 30 32 30 30 32 32 32 28 25 21 19 11 13 20 16 15 9 8 12 12 10 10 13 16 20 21 18 18 20 21
79 75 62 63 62 65 63 59 53 51 50 46 44 40 34 31 29 28 34 37 35 33 31 28 27 19 19 19 16 19 15 15 19 16 15 9 23 20 18 17 19 18 19
80 78 81 67 68 68 68 64 60 59 56 56 53 51 49 44 39 36 36 38 41 40 38 38 35 34 31 29 26 25 24 24 25 25 22 22 21 25 22 19 24 22 18
83 88 86 80 72 70 72 71 69 67 65 61 57 54 59 56 50 47 46 46 45 43 47 44 43 41 41 38 36 35 33 32 30 30 31 32 31 30 25 25 27 25 25
90 92 87 77 79 74 74 75 73 76 71 67 65 63 62 64 61 57 57 52 52 46 51 54 55 54 52 49 43 41 43 44 41 38 35 39 42 40 35 30 31 32 30
100 95 91 90 91 90 85 81 82 81 79 74 69 68 67 69 68 64 62 59 58 57 57 59 59 59 60 56 55 53 50 51 48 44 42 42 42 42 45 44 38 39 36
105 101 104 98 101 95 91 88 82 77 80 79 79 78 78 76 74 71 69 68 66 67 68 67 67 68 64 64 64 63 59 55 55 53 51 49 52 49 50 50 49 48 44
104 107 108 109 103 101 98 94 92 89 84 73 73 76 79 79 77 77 74 74 76 75 74 74 73 73 76 73 71 69 68 66 63 62 59 58 57 57 54 56 56 55 54
104 109 113 111 106 106 105 107 106 99 97 95 96 93 84 78 79 83 87 85 77 79 81 78 78 78 78 79 76 71 73 72 70 68 64 67 63 62 58 66 64 59 62
110 108 109 113 115 113 114 109 111 109 106 103 102 104 99 99 93 93 83 82 85 86 88 86 85 82 82 81 79 79 79 76 71 63 61 64 62 62 63 64 64 66 68
108 110 110 108 107 108 110 114 116 116 115 114 114 114 113 111 115 111 105 97 91 89 91 87 86 88 87 83 83 86 84 84 83 85 83 80 78 75 70 67 67 71 63
107 108 110 111 110 108 108 109 111 112 113 115 116 116 116 110 108 109 114 113 110 106 99 96 96 95 95 97 97 96 89 88 88 85 83 85 83 82 86 86 87 78 81

GFSMW_250_spd_108.txt.gz
Wind_Speed
8 12 17 19 20 20 20 20 21 26 28 31 33 35 39 41 42 39 37 36 35 37 35 39 33 17 29 29 27 27 22 23 27 25 16 9 8 16 14 13 14 14 11
3 7 12 16 17 21 20 19 22 22 25 27 30 32 37 37 39 39 39 39 37 37 35 34 32 31 31 32 33 33 32 29 33 34 30 28 27 24 22 21 18 14 11
1 4 4 10 15 18 20 19 17 17 20 24 26 28 27 32 34 34 38 39 38 38 36 34 31 31 32 33 36 36 36 34 33 32 33 38 36 29 21 20 19 18 19
8 4 5 5 9 14 17 17 17 16 15 19 23 23 24 24 30 35 36 35 35 36 34 34 35 35 34 34 36 36 37 38 33 32 31 23 8 25 32 36 28 27 28
19 8 7 6 6 7 10 13 14 15 12 15 18 21 23 23 26 32 32 31 33 34 30 32 35 34 36 39 39 39 39 38 38 34 29 32 34 24 24 30 30 38 38
25 16 12 8 6 7 7 7 9 14 12 11 12 15 14 17 18 15 25 27 30 30 32 34 33 33 34 36 37 40 41 41 42 37 31 18 26 30 41 20 1 26 23
30 24 14 14 12 7 5 6 6 5 9 8 9 11 13 12 7 12 7 12 24 28 30 31 33 35 37 37 37 37 38 41 43 41 36 31 30 33 21 8 3 12 11
36 31 21 17 17 10 6 2 5 3 5 3 1 7 14 12 6 10 6 8 18 17 23 25 27 31 33 37 38 37 36 37 36 42 41 36 33 33 29 24 19 24 20
39 36 32 21 18 20 14 9 6 5 4 5 3 3 7 8 2 6 2 21 5 7 15 16 19 20 23 24 29 33 37 36 35 32 40 37 34 33 30 28 29 26 24
49 44 39 27 20 23 23 16 13 9 8 5 4 7 7 6 4 5 5 2 8 10 10 10 9 14 16 20 24 25 29 31 38 34 31 36 33 29 29 24 25 25 29
56 46 41 32 22 25 25 24 23 19 16 15 6 8 10 13 11 9 8 5 10 6 2 7 4 4 11 16 18 19 21 23 29 33 32 31 32 33 26 23 18 17 19
52 52 49 36 28 25 36 40 33 30 22 19 15 12 11 15 17 15 13 11 10 10 8 5 5 3 1 8 15 14 13 14 18 24 27 30 30 30 31 27 18 11 10
61 59 53 47 36 30 22 44 46 42 31 22 23 23 21 20 22 22 18 18 15 14 15 12 10 5 6 4 7 12 12 10 11 12 18 24 25 24 23 26 27 22 10
76 66 59 54 49 37 40 33 47 35 27 22 37 30 30 28 28 30 28 25 22 18 19 18 17 11 7 6 7 8 12 10 9 9 10 13 19 20 20 21 22 21 24
75 74 70 64 61 59 59 59 40 47 43 38 38 31 37 36 34 32 32 32 31 28 23 22 21 18 16 13 11 13 16 15 12 13 12 11 13 16 20 17 18 20 21
64 71 75 75 72 71 67 65 67 62 57 51 52 51 43 43 34 36 35 32 30 32 32 31 29 26 25 23 22 14 15 17 18 20 18 18 18 16 21 23 19 17 18
64 72 69 71 76 73 70 65 68 69 66 62 56 54 49 50 41 38 37 34 31 32 32 35 35 35 33 32 31 32 30 27 26 24 21 23 22 23 25 25 25 23 20
92 82 73 73 75 75 73 74 71 68 66 58 61 61 54 55 55 48 46 39 35 36 32 34 35 36 38 38 40 40 40 39 37 31 28 30 30 31 31 32 35 32 30
91 98 93 74 79 76 78 80 74 70 67 65 60 65 63 62 63 57 56 54 56 53 54 51 51 50 49 47 47 51 51 50 49 46 42 39 37 36 36 35 34 33 36
118 103 95 101 91 76 80 87 81 78 78 71 68 66 71 69 69 68 64 62 61 60 62 61 55 57 55 54 53 54 53 55 55 55 56 52 49 47 42 42 41 40 41
82 108 102 98 99 105 89 83 91 85 77 76 76 78 74 70 72 73 73 68 69 68 66 67 66 65 60 58 60 61 61 59 59 58 59 60 61 56 54 53 49 51 47
102 100 113 107 100 87 98 98 89 90 95 87 83 83 81 79 80 80 78 76 74 74 74 71 71 72 68 65 61 65 69 70 70 70 70 70 69 67 63 60 63 58 56
104 115 103 108 114 112 96 98 96 89 103 104 101 95 90 82 84 82 85 87 87 84 83 85 80 78 79 78 75 73 72 76 79 77 76 75 75 74 72 67 65 66 66
112 105 107 109 110 117 116 110 104 105 97 94 91 96 94 86 90 89 86 91 90 84 87 84 85 86 84 81 80 83 79 80 83 84 81 80 80 77 75 67 61 61 64
106 107 109 108 109 111 115 118 115 115 113 107 109 104 108 102 101 98 93 92 84 79 82 86 86 86 86 85 92 87 87 83 86 88 85 81 80 78 75 78 72 67 68
101 103 103 105 109 110 110 111 111 116 122 118 113 113 116 117 115 112 111 112 107 105 103 103 98 96 91 91 89 91 92 92 92 94 95 95 89 84 85 85 87 87 93

GFSMW_250_spd_111.txt.gz
Wind_Speed
12 14 18 20 21 24 24 27 31 33 35 39 41 42 46 48 47 47 43 44 42 39 40 39 39 40 37 35 32 31 38 42 37 30 28 31 28 27 23 21 21 21 23
7 8 13 17 18 17 24 25 26 29 30 32 39 39 40 40 43 43 43 45 43 41 42 42 44 39 38 41 38 36 37 40 43 42 40 31 35 36 38 38 34 38 39
2 2 6 13 16 17 17 20 23 26 25 28 31 32 35 40 38 39 42 43 42 43 44 44 45 46 45 43 40 38 36 34 30 32 35 39 45 44 37 29 35 26 27
10 2 2 7 13 13 15 17 19 20 24 25 28 30 31 33 34 37 39 41 41 40 41 42 43 44 49 48 44 37 34 37 38 30 27 27 25 16 30 28 21 29 30
13 7 4 7 6 8 11 14 14 14 17 19 16 20 17 18 29 32 31 36 38 41 43 44 45 44 43 46 48 44 36 32 30 27 31 20 19 16 11 12 18 24 17
19 15 8 10 7 6 7 9 12 14 13 15 14 15 16 16 16 21 21 23 28 34 39 41 44 46 47 44 43 46 41 37 35 28 36 34 23 19 14 4 13 9 8
23 21 14 11 9 6 5 6 7 9 11 10 10 9 9 17 10 8 19 20 25 28 27 30 36 39 42 44 42 39 40 40 37 33 35 25 21 17 12 10 8 13 12
28 24 19 14 13 11 6 5 6 7 8 5 5 6 11 8 7 11 8 9 11 18 22 24 24 29 33 38 41 40 37 37 36 35 34 33 29 19 10 6 10 10 8
34 27 25 25 14 15 13 9 6 3 2 2 1 4 4 2 2 3 3 3 4 14 11 13 16 21 27 29 33 36 36 37 36 33 31 29 25 25 24 20 18 10 10
38 32 30 30 28 21 20 18 15 8 5 1 4 8 4 7 4 7 3 2 10 5 11 5 8 15 19 20 25 26 29 32 34 35 36 32 26 18 17 18 18 14 11
41 37 37 34 29 29 25 20 22 16 12 10 8 9 10 7 11 10 6 2 3 6 5 4 4 5 11 16 18 20 22 24 28 30 30 32 34 33 18 9 8 10 6
48 42 41 38 35 33 32 29 28 27 25 19 13 14 8 7 12 12 14 9 7 8 8 5 2 2 1 7 8 13 13 14 17 19 26 26 26 28 27 29 14 3 5
54 49 47 42 43 44 35 31 29 33 36 31 22 16 16 11 12 15 19 17 14 16 14 11 10 5 5 3 5 7 7 8 9 12 11 17 22 22 21 22 22 21 21
59 56 57 51 47 47 44 35 40 43 43 40 33 25 20 17 20 19 20 23 27 26 22 17 18 13 10 11 7 8 7 8 8 10 11 10 8 12 17 20 20 18 17
66 65 61 57 51 50 48 46 43 34 35 29 26 22 26 24 24 20 23 27 28 30 32 29 24 20 16 18 15 11 10 11 11 13 13 12 12 11 11 13 19 18 19
73 58 59 56 59 60 55 48 45 38 39 34 34 29 32 24 26 36 36 33 32 29 29 30 31 29 28 26 22 21 23 16 19 21 20 18 17 15 15 16 21 20 20
59 66 70 74 73 70 62 55 55 51 53 41 40 40 45 51 50 42 47 45 35 32 29 36 34 31 30 31 29 28 27 29 32 30 29 26 24 22 19 20 22 25 25
56 64 66 74 77 81 79 75 69 61 60 64 70 69 63 59 60 57 56 55 43 38 40 43 40 35 32 29 28 34 33 35 36 37 38 36 35 36 33 27 29 30 28
62 64 65 60 60 63 62 67 65 57 62 71 73 70 68 66 63 62 61 55 57 48 48 50 48 45 41 44 45 48 45 47 45 44 44 43 43 44 45 44 43 40 38
86 83 84 71 70 67 66 67 68 69 70 68 72 74 74 72 70 68 64 62 59 59 59 52 55 58 58 58 58 58 57 53 53 55 54 47 47 49 48 48 48 48 47
100 99 92 97 87 84 79 72 67 72 75 75 76 74 74 74 71 67 65 66 67 64 65 67 64 61 65 65 65 65 62 63 66 60 58 57 54 54 56 56 57 57 58
91 103 80 79 97 97 94 80 82 83 78 79 81 77 79 81 78 78 80 73 72 74 76 76 75 73 69 71 71 71 70 68 70 67 63 65 65 65 62 62 63 67 66
123 118 110 99 90 88 111 103 99 98 80 83 86 87 85 88 88 92 91 88 83 89 79 74 78 79 77 76 79 80 78 80 77 77 77 71 72 75 76 72 72 70 66
124 124 126 124 119 109 99 100 119 111 115 112 111 104 97 90 93 91 89 83 87 90 85 80 80 81 83 83 83 87 87 88 86 86 83 82 78 80 79 81 79 77 73
117 117 122 125 124 122 110 99 102 102 108 108 109 113 114 99 107 111 102 98 98 95 93 92 97 98 97 92 92 96 91 90 91 92 91 88 89 87 85 83 85 83 75
114 114 117 117 122 125 124 123 108 109 111 117 115 106 112 110 109 107 104 112 109 104 110 103 95 94 95 98 101 101 99 95 97 95 90 91 89 92 91 90 84 86 84

GFSMW_250_spd_114.txt.gz
Wind_Speed
15 18 17 21 21 26 31 34 36 36 38 41 41 45 44 43 46 45 46 47 50 47 44 45 43 40 45 44 49 55 57 53 44 38 35 33 35 35 32 39 37 30 27
10 12 16 17 19 22 26 28 29 32 37 38 38 39 41 44 45 45 43 43 45 49 51 46 40 42 40 38 47 49 48 48 45 44 42 40 33 30 32 41 44 43 36
8 8 13 15 17 18 19 22 26 28 31 36 37 35 39 43 43 44 44 47 46 43 47 49 49 42 40 39 33 33 34 33 34 32 31 30 29 26 29 26 28 29 31
5 6 11 12 13 16 16 17 20 24 28 30 33 33 33 36 39 40 43 45 46 47 47 47 48 46 42 34 34 35 30 26 24 23 24 25 23 18 28 27 23 19 17
11 5 7 11 10 11 14 13 13 14 14 15 18 24 25 29 28 31 36 38 40 41 42 43 44 42 40 38 34 30 27 25 23 20 20 19 20 18 14 17 17 19 24
13 10 5 9 8 8 10 12 11 11 9 15 14 15 17 24 26 26 31 32 35 35 36 37 40 41 40 38 36 35 27 25 23 22 21 21 21 22 20 24 25 23 16
22 12 11 10 8 7 8 7 8 9 9 10 9 9 13 12 18 18 21 21 24 27 27 29 36 37 39 38 36 35 32 25 24 17 15 15 17 17 19 21 18 23 16
26 20 16 15 13 6 7 5 7 8 7 7 4 8 8 9 11 9 10 14 19 18 19 21 27 31 32 38 38 37 32 31 28 26 26 23 20 19 17 17 18 22 24
36 29 24 19 17 15 10 7 4 2 3 3 3 5 2 3 5 3 5 5 4 12 14 16 16 21 26 29 33 32 36 36 33 30 27 23 23 24 24 23 23 23 20
37 30 30 27 22 20 16 14 10 6 3 2 1 5 5 7 3 1 0 6 6 7 14 9 11 15 18 20 22 26 28 32 32 33 32 29 24 20 20 19 21 20 15
36 38 36 31 26 25 26 22 15 17 13 12 6 6 8 8 8 6 5 7 7 4 7 7 4 4 9 11 12 14 19 23 25 26 28 29 29 28 25 20 15 14 16
44 37 41 36 35 31 27 24 19 20 22 20 14 10 10 9 9 7 6 6 7 7 7 5 4 2 3 6 5 7 8 12 16 15 18 21 25 24 22 22 23 23 24
47 43 44 41 42 39 35 33 27 22 23 25 25 17 16 13 9 9 7 6 6 9 13 10 8 6 2 3 3 8 4 6 9 12 13 11 13 16 17 20 20 18 18
55 48 47 47 44 42 43 40 37 35 29 28 23 28 26 21 21 17 15 10 10 13 14 16 14 14 10 10 9 8 11 10 6 8 11 13 12 14 11 13 15 20 21
64 54 48 49 48 47 45 46 44 38 35 36 30 30 38 40 27 22 19 15 14 16 16 21 20 19 19 18 16 14 16 15 16 11 12 13 14 16 14 15 14 16 18
59 63 58 52 50 50 52 54 52 44 41 43 43 35 32 37 41 33 25 21 18 23 30 31 28 22 23 26 27 26 24 22 18 17 16 21 24 23 23 20 19 21 21
52 50 56 58 58 56 59 59 53 51 48 45 34 24 35 41 42 43 33 32 32 38 41 36 33 29 29 32 33 32 28 28 26 27 22 26 29 29 28 29 32 32 28
41 54 54 59 57 58 62 62 60 54 53 48 46 49 47 43 44 45 47 46 44 53 51 45 40 38 36 36 36 37 36 32 27 30 32 35 34 34 33 36 39 39 38
64 55 41 47 58 53 55 55 57 58 60 58 57 58 53 52 54 58 59 60 59 57 55 52 48 47 44 43 41 44 43 34 35 41 40 45 45 44 42 43 45 42 40
77 79 60 52 60 58 48 51 62 60 62 59 56 62 64 62 62 64 61 63 67 68 62 54 53 54 53 52 51 47 46 51 54 52 53 54 54 55 54 55 54 52 49
83 80 82 65 67 60 56 58 42 65 58 53 53 64 70 63 72 79 80 77 74 77 69 67 61 58 58 60 54 59 55 55 57 60 61 63 60 61 63 62 61 61 59
88 82 74 76 73 75 69 63 57 62 43 43 46 61 78 80 77 78 79 80 81 78 78 66 61 58 60 64 64 64 66 70 73 69 67 67 67 68 68 67 68 66 67
99 100 95 86 77 78 75 71 62 65 73 68 65 61 64 82 90 89 88 85 88 89 81 70 65 70 75 77 75 78 76 74 73 70 68 73 77 79 74 75 74 75 74
114 109 103 102 105 94 90 82 80 79 73 78 91 94 94 84 85 90 95 92 85 83 82 85 86 86 80 85 86 83 80 77 73 78 78 78 82 82 80 82 85 86 85
122 121 120 114 112 117 106 106 95 95 95 96 86 87 94 98 99 96 96 98 95 91 93 95 90 89 91 90 88 87 83 85 83 82 86 84 83 86 89 93 95 90 92
120 126 129 129 125 122 121 123 120 104 104 109 112 110 100 95 96 95 90 94 93 97 96 88 91 93 95 99 96 93 92 89 88 87 86 91 98 100 102 99 103 100 98

GFSMW_250_spd_117.txt.gz
Wind_Speed
16 22 23 26 29 30 33 38 40 40 41 43 44 45 42 43 43 46 49 46 43 40 42 43 50 55 56 55 51 53 48 43 46 45 42 46 38 36 34 32 30 30 37
14 17 23 23 26 24 29 33 33 38 39 40 43 44 48 47 49 52 49 47 41 42 42 40 40 39 42 42 41 42 40 43 40 40 37 32 29 27 29 29 25 25 26
12 15 17 20 22 24 24 28 31 32 33 38 40 41 43 44 44 43 42 41 44 41 38 34 34 34 33 33 32 35 41 43 39 37 33 29 30 28 27 29 32 33 32
11 11 14 16 18 21 22 23 27 29 30 31 33 37 37 40 42 44 43 40 38 37 39 38 34 30 29 30 30 31 32 33 33 32 28 24 24 24 22 22 24 27 32
13 5 9 14 14 17 19 20 18 16 18 25 25 28 29 30 34 35 36 38 38 40 39 38 36 35 34 34 34 35 31 22 28 26 30 32 31 30 31 27 29 32 29
12 7 2 6 8 12 11 11 11 12 13 16 20 20 22 22 26 28 30 32 32 36 39 39 36 34 33 34 36 35 33 31 32 28 28 30 30 30 31 32 27 34 36
15 8 6 7 9 8 9 10 8 10 12 9 11 13 14 14 16 19 21 22 26 25 31 34 36 37 35 31 32 31 30 29 31 34 33 33 33 32 35 33 32 35 34
23 18 14 13 8 9 8 7 8 8 8 7 9 8 9 9 9 10 11 12 15 21 19 25 30 31 34 34 33 36 33 29 26 25 25 28 29 28 28 28 28 30 29
28 25 22 18 15 12 8 9 9 5 6 7 8 7 3 4 2 3 8 11 6 10 14 16 18 22 26 29 29 31 32 33 33 30 27 25 24 23 25 27 27 24 23
32 32 28 23 20 16 15 12 9 6 4 3 5 9 4 1 1 3 3 8 9 8 9 8 12 13 14 18 21 23 26 28 27 30 30 30 30 27 25 25 25 22 21
41 35 34 27 25 21 19 16 15 9 12 9 7 6 7 7 5 3 3 4 5 5 7 5 2 4 8 10 11 13 16 18 19 21 24 26 25 26 26 27 28 27 28
41 38 36 33 32 29 25 22 20 19 14 17 18 12 11 8 7 5 3 2 3 2 2 4 3 3 5 3 4 7 7 10 11 13 14 16 18 20 22 25 26 27 27
45 47 47 41 40 37 32 29 26 23 21 16 20 20 17 15 9 8 7 6 5 4 4 6 5 6 4 4 7 7 5 3 4 7 9 10 10 10 11 13 15 19 21
50 44 46 46 43 41 37 37 33 30 29 24 19 20 22 22 22 17 16 11 12 10 5 3 11 12 10 10 12 13 14 10 5 4 7 8 7 9 11 9 12 14 16
57 52 51 51 48 46 41 41 43 36 33 32 28 29 28 30 24 24 26 23 19 20 14 8 7 11 15 16 16 18 18 15 16 14 13 15 13 16 15 12 14 15 18
64 61 56 53 53 48 47 45 43 44 39 40 38 34 30 35 34 32 35 33 33 27 24 20 15 13 20 25 22 21 22 22 25 24 20 20 19 19 18 20 21 21 21
68 64 62 62 58 59 51 48 47 44 43 41 43 42 38 37 38 39 39 32 32 37 36 33 27 26 23 33 31 34 30 30 28 26 25 27 29 26 25 26 25 25 28
68 66 65 64 64 61 53 48 49 52 45 42 48 47 41 41 41 42 34 36 42 44 44 43 43 44 35 38 45 39 37 35 35 36 33 32 33 29 35 33 40 36 37
62 62 64 63 60 57 57 57 51 52 52 52 52 56 50 48 48 47 44 49 50 48 52 51 51 55 56 50 50 52 40 40 41 41 41 37 36 41 42 43 49 51 48
69 69 63 58 57 56 55 55 57 60 61 58 53 57 59 56 58 55 52 50 54 62 58 63 61 57 58 61 58 57 54 52 51 50 49 50 48 48 48 52 55 55 54
72 74 76 64 68 65 63 62 47 45 45 54 47 56 57 64 66 60 57 55 59 63 65 67 69 68 65 68 65 64 62 64 59 53 54 55 52 53 55 60 59 58 57
70 72 73 74 68 62 70 75 74 71 51 44 54 54 46 38 49 54 62 68 72 64 69 72 71 72 73 72 78 77 76 72 64 60 57 60 62 62 61 62 62 61 63
83 77 74 72 69 71 69 74 75 68 63 64 67 59 58 55 55 60 71 73 76 79 82 79 80 80 78 82 82 79 78 75 73 63 70 70 73 76 73 69 70 74 76
95 95 94 81 77 78 74 75 78 75 69 59 63 57 61 66 62 57 68 82 89 92 93 89 85 85 86 84 84 84 84 81 84 80 81 84 85 84 83 81 80 79 77
96 95 96 95 91 85 86 84 82 83 81 72 73 71 77 76 76 68 71 72 71 76 86 96 96 94 92 93 94 93 93 93 88 96 95 94 92 86 85 87 81 83 83
120 113 97 94 97 99 103 100 97 89 95 95 93 93 88 94 87 84 76 78 80 86 86 87 91 97 98 96 100 97 98 101 102 107 106 107 102 89 90 90 81 84 88

GFSMW_250_spd_123.txt.gz
Wind_Speed
23 28 29 32 37 39 41 42 41 38 37 35 35 35 34 38 43 44 49 56 55 55 55 53 51 49 46 44 42 39 39 37 36 32 32 32 33 32 34 35 39 44 48
21 23 26 30 35 41 42 45 43 42 44 38 35 36 35 33 32 34 42 46 45 45 47 49 48 51 49 45 40 38 33 31 28 30 29 28 30 32 32 33 35 39 45
15 19 26 29 31 37 38 38 40 38 39 41 39 40 36 37 38 37 34 40 37 39 37 41 41 42 39 37 34 31 29 29 32 33 34 35 33 34 35 35 34 38 43
18 19 23 24 29 30 31 33 33 35 35 36 37 35 36 33 37 39 35 30 34 32 32 33 34 31 31 31 30 26 26 28 33 34 37 37 37 38 38 39 40 37 39
21 21 19 18 20 25 25 25 25 28 31 30 31 33 30 33 39 41 38 35 32 29 27 25 27 26 25 24 24 25 25 31 33 36 34 34 31 31 33 37 37 39 34
24 20 21 20 19 21 20 20 20 22 26 25 28 30 30 30 33 38 40 37 36 35 30 30 26 21 27 28 29 32 32 33 32 30 28 27 28 28 30 33 34 35 35
25 23 19 20 20 19 14 10 12 15 18 15 15 20 21 23 25 26 31 36 37 35 38 36 33 32 30 30 29 29 28 27 25 24 24 26 27 28 29 31 34 35 36
27 26 23 21 21 19 16 13 13 14 10 9 10 10 11 19 18 19 21 24 29 32 32 28 32 34 31 29 27 25 24 22 25 28 33 34 35 34 36 36 34 34 35
31 29 27 24 22 18 16 16 16 16 12 11 11 9 5 8 14 15 16 17 22 26 27 27 25 26 29 29 30 30 30 29 29 28 31 31 32 34 34 34 34 34 33
35 31 30 27 26 23 18 16 16 13 10 13 13 9 7 7 9 11 12 12 10 10 14 16 15 17 20 20 20 21 20 19 19 22 23 23 24 25 26 28 30 29 29
39 35 33 30 25 24 21 20 18 16 11 8 7 8 6 5 7 8 9 9 9 8 7 6 6 9 12 14 12 10 11 12 12 11 11 12 13 15 17 20 20 22 23
45 41 38 33 31 29 26 23 20 17 15 12 7 6 5 3 5 8 11 12 10 11 9 6 6 6 4 4 5 4 3 5 4 4 6 7 8 9 8 10 13 13 16
47 48 44 39 37 36 32 29 26 23 21 17 12 8 8 7 6 5 10 13 14 12 9 8 7 7 6 4 3 3 2 4 6 3 4 6 3 2 6 6 6 9 11
60 54 52 47 44 42 38 34 32 28 25 22 20 17 10 10 11 10 11 14 15 16 14 14 14 11 8 6 4 6 5 7 8 8 8 11 12 11 11 11 10 10 8
63 63 57 55 50 47 44 41 38 36 32 30 27 23 22 19 16 13 12 13 14 16 15 17 20 19 16 13 9 6 5 8 8 9 11 12 14 13 15 16 17 17 17
67 66 61 60 57 52 53 46 45 44 42 37 35 31 30 27 25 22 21 20 19 22 23 21 23 24 21 20 17 17 18 15 13 9 11 14 19 18 18 16 16 20 22
73 72 65 64 63 60 57 52 51 49 47 44 40 38 36 35 33 30 29 27 27 24 24 27 28 27 37 34 33 25 24 24 23 20 25 25 21 22 28 27 25 23 25
81 77 74 69 67 65 62 59 58 54 54 52 46 46 44 41 41 34 34 31 31 36 34 37 37 34 34 37 38 38 38 37 36 36 37 34 30 35 27 35 38 35 35
86 81 80 79 73 68 67 65 64 62 57 55 53 51 48 44 40 38 35 33 41 44 44 41 41 42 43 46 45 42 42 42 42 45 46 44 45 43 39 40 38 42 43
90 83 80 78 77 74 71 69 69 66 65 60 58 57 55 49 44 43 43 43 46 54 50 48 48 49 50 48 59 52 49 49 52 49 48 48 48 54 56 54 43 45 49
95 90 85 83 80 78 74 74 73 73 72 70 66 63 59 55 54 50 49 48 48 55 59 57 60 57 57 61 58 61 60 59 59 56 57 56 62 66 64 60 61 63 64
99 96 91 89 86 85 83 80 78 79 78 77 74 72 64 60 61 61 61 62 64 71 75 67 66 67 64 61 63 62 63 63 63 63 67 72 73 67 65 65 68 65 62
94 96 96 94 91 91 87 87 82 81 82 81 79 75 75 71 70 65 65 67 67 70 77 75 72 72 77 70 68 69 71 68 68 71 77 76 74 73 72 68 71 71 75
98 91 93 92 90 92 91 89 92 93 89 87 81 83 83 77 76 70 72 71 74 79 83 77 79 78 72 67 68 68 70 73 71 67 76 82 79 87 83 82 82 83 82
97 99 100 89 94 95 91 91 91 92 94 93 92 84 81 79 78 77 77 76 77 82 88 89 85 77 65 73 71 72 75 80 78 79 82 88 91 92 91 89 90 89 88
91 96 101 101 90 85 83 82 87 89 92 94 94 91 91 88 85 84 84 82 85 86 85 86 81 77 78 79 85 82 83 83 86 86 90 92 94 93 93 94 96 98 99